KC5DAQ-22 Weather Reports


time (UTC)temp
C
wind
direction
speed
KPH
gust
KPH
rain 1hr
cm
rain 24hr
cm
rain mn
cm
humidity
%
barometer
mb
20260509183632 30 264 8.0 16.1 0.00 0.13 0.00 70 1007.4
20260509183531 30 286 8.0 16.1 0.00 0.13 0.00 70 1007.4
20260509183431 30 217 6.4 16.1 0.00 0.13 0.00 71 1007.4
20260509183331 29 252 4.8 16.1 0.00 0.13 0.00 72 1007.4
20260509183231 29 258 4.8 16.1 0.00 0.13 0.00 71 1007.5
20260509183132 29 247 4.8 16.1 0.00 0.13 0.00 71 1007.4
20260509183030 30 261 6.4 16.1 0.00 0.13 0.00 71 1007.4
20260509182932 30 238 9.7 16.1 0.00 0.13 0.00 71 1007.5
20260509182831 30 252 9.7 16.1 0.00 0.13 0.00 71 1007.5
20260509182732 30 250 8.0 16.1 0.00 0.13 0.00 71 1007.6
20260509182631 30 209 6.4 16.1 0.00 0.13 0.00 71 1007.5
20260509182531 30 200 6.4 16.1 0.00 0.13 0.00 71 1007.6
20260509182430 30 231 6.4 16.1 0.00 0.13 0.00 70 1007.5
20260509182332 30 238 6.4 16.1 0.00 0.13 0.00 70 1007.5
20260509182232 30 203 6.4 16.1 0.00 0.13 0.00 70 1007.6
20260509182131 30 195 8.0 17.7 0.00 0.13 0.00 70 1007.5
20260509182033 30 183 6.4 17.7 0.00 0.13 0.00 70 1007.6
20260509181932 30 220 6.4 17.7 0.00 0.13 0.00 70 1007.6
20260509181830 30 210 4.8 17.7 0.00 0.13 0.00 71 1007.6
20260509181730 30 234 3.2 17.7 0.00 0.13 0.00 70 1007.7
20260509181631 30 192 3.2 17.7 0.00 0.13 0.00 70 1007.7
20260509181531 30 173 6.4 17.7 0.00 0.13 0.00 70 1007.7
20260509181431 30 226 9.7 17.7 0.00 0.13 0.00 69 1007.7
20260509181331 30 234 9.7 17.7 0.00 0.13 0.00 69 1007.7
20260509181231 30 230 9.7 17.7 0.00 0.13 0.00 70 1007.7
20260509181131 30 173 9.7 17.7 0.00 0.13 0.00 69 1007.8
20260509181031 31 89 8.0 17.7 0.00 0.13 0.00 68 1007.7
20260509180931 31 152 9.7 17.7 0.00 0.13 0.00 68 1007.9
20260509180831 31 121 9.7 17.7 0.00 0.13 0.00 67 1007.9
20260509180731 31 192 9.7 17.7 0.00 0.13 0.00 67 1007.9
20260509180629 31 151 8.0 17.7 0.00 0.13 0.00 69 1007.9
20260509180527 31 169 8.0 17.7 0.00 0.13 0.00 68 1007.9
20260509180426 31 202 6.4 17.7 0.00 0.13 0.00 70 1007.9
20260509180324 31 195 4.8 20.9 0.00 0.13 0.00 70 1007.9
20260509180222 31 155 4.8 20.9 0.00 0.13 0.00 71 1007.9
20260509180123 30 248 9.7 20.9 0.00 0.13 0.00 70 1007.9
20260509180022 30 248 9.7 20.9 0.00 0.13 0.00 70 1008.0
20260509175923 30 248 9.7 20.9 0.00 0.13 0.00 70 1007.9
20260509175822 30 247 11.3 20.9 0.00 0.13 0.00 70 1008.0
20260509175721 31 235 11.3 20.9 0.00 0.13 0.00 69 1008.0
20260509175623 31 197 11.3 20.9 0.00 0.13 0.00 70 1008.1
20260509175522 31 179 11.3 20.9 0.00 0.13 0.00 70 1008.1
20260509175422 31 203 12.9 19.3 0.00 0.13 0.00 71 1008.1
20260509175323 31 264 9.7 17.7 0.00 0.13 0.00 72 1008.2
20260509175222 30 192 8.0 14.5 0.00 0.13 0.00 73 1008.1
20260509175121 30 223 8.0 14.5 0.00 0.13 0.00 72 1008.1
20260509175021 30 206 6.4 16.1 0.00 0.13 0.00 72 1008.2
20260509174923 30 231 6.4 16.1 0.00 0.13 0.00 72 1008.1
20260509174821 30 250 4.8 17.7 0.00 0.13 0.00 73 1008.1
20260509174721 30 259 3.2 17.7 0.00 0.13 0.00 74 1008.1
20260509174622 30 131 6.4 17.7 0.00 0.13 0.00 74 1008.1
20260509174522 30 189 8.0 17.7 0.00 0.13 0.00 74 1008.2
20260509174421 30 275 8.0 17.7 0.00 0.13 0.00 75 1008.2
20260509174322 30 166 8.0 17.7 0.00 0.13 0.00 75 1008.3
20260509174223 29 226 8.0 17.7 0.00 0.13 0.00 75 1008.3
20260509174123 29 223 8.0 17.7 0.00 0.13 0.00 76 1008.3
20260509174020 29 269 9.7 17.7 0.00 0.13 0.00 76 1008.3
20260509173922 29 227 9.7 17.7 0.00 0.13 0.00 76 1008.2
20260509173821 29 203 9.7 19.3 0.00 0.13 0.00 76 1008.3
20260509173722 29 223 9.7 19.3 0.00 0.13 0.00 76 1008.2
20260509173621 29 175 9.7 19.3 0.00 0.13 0.00 76 1008.2
20260509173523 29 125 8.0 19.3 0.00 0.13 0.00 77 1008.2
20260509173420 29 213 6.4 19.3 0.00 0.13 0.00 77 1008.2
20260509173322 29 197 8.0 19.3 0.00 0.13 0.00 77 1008.2
20260509173223 29 185 6.4 19.3 0.00 0.13 0.00 78 1008.2
20260509173121 29 207 8.0 19.3 0.00 0.13 0.00 78 1008.3
20260509173022 29 138 9.7 19.3 0.00 0.13 0.00 78 1008.3
20260509172923 29 102 9.7 19.3 0.00 0.13 0.00 78 1008.3
20260509172822 29 151 6.4 17.7 0.00 0.13 0.00 79 1008.2
20260509172720 28 200 6.4 17.7 0.00 0.13 0.00 79 1008.2
20260509172620 28 220 8.0 17.7 0.00 0.13 0.00 79 1008.3
20260509172523 28 193 8.0 17.7 0.00 0.13 0.00 79 1008.3
20260509172421 28 176 9.7 17.7 0.00 0.13 0.00 79 1008.3
20260509172321 28 209 9.7 17.7 0.00 0.13 0.00 79 1008.4
20260509172221 28 209 9.7 16.1 0.00 0.13 0.00 79 1008.4
20260509172122 28 214 9.7 17.7 0.00 0.13 0.00 78 1008.4
20260509172020 28 214 9.7 17.7 0.00 0.13 0.00 78 1008.4
20260509171920 28 228 8.0 17.7 0.00 0.13 0.00 79 1008.4
20260509171821 28 265 8.0 17.7 0.00 0.13 0.00 79 1008.5
20260509171721 28 202 8.0 17.7 0.00 0.13 0.00 79 1008.5
20260509171621 28 248 8.0 17.7 0.00 0.13 0.00 79 1008.4
20260509171521 28 244 8.0 17.7 0.00 0.13 0.00 79 1008.4
20260509171420 28 190 9.7 17.7 0.00 0.13 0.00 79 1008.4
20260509171321 28 228 11.3 17.7 0.00 0.13 0.00 79 1008.5
20260509171220 28 195 9.7 17.7 0.00 0.13 0.00 79 1008.5
20260509171122 28 210 6.4 17.7 0.00 0.13 0.00 79 1008.4
20260509171020 29 216 6.4 17.7 0.00 0.13 0.00 80 1008.4
20260509170920 28 214 6.4 17.7 0.00 0.13 0.00 80 1008.3
20260509170822 28 262 4.8 16.1 0.00 0.13 0.00 82 1008.3
20260509170722 28 162 4.8 16.1 0.00 0.13 0.00 82 1008.3
20260509170620 28 117 6.4 16.1 0.00 0.13 0.00 81 1008.2
20260509170520 28 182 6.4 16.1 0.00 0.13 0.00 82 1008.3
20260509170421 28 165 4.8 16.1 0.00 0.13 0.00 83 1008.3
20260509170320 27 182 4.8 16.1 0.00 0.13 0.00 84 1008.3
20260509170220 27 159 6.4 16.1 0.00 0.13 0.00 83 1008.4
20260509170121 27 175 8.0 16.1 0.00 0.13 0.00 83 1008.4
20260509170021 27 234 6.4 16.1 0.00 0.13 0.00 83 1008.5
20260509165921 27 171 4.8 9.7 0.00 0.13 0.00 84 1008.4
20260509165820 27 180 3.2 9.7 0.00 0.13 0.00 84 1008.5
20260509165722 27 94 3.2 9.7 0.00 0.13 0.00 84 1008.4
20260509165620 27 173 3.2 9.7 0.00 0.13 0.00 84 1008.4
20260509165520 27 166 3.2 9.7 0.00 0.13 0.00 84 1008.4
20260509165421 27 173 4.8 9.7 0.00 0.13 0.00 84 1008.5
20260509165319 27 200 6.4 9.7 0.00 0.13 0.00 84 1008.5
20260509165221 27 171 4.8 8.0 0.00 0.13 0.00 84 1008.3
20260509165120 27 199 1.6 6.4 0.00 0.13 0.00 85 1008.5
20260509165021 27 196 0.0 6.4 0.00 0.13 0.00 84 1008.4
20260509164920 27 164 1.6 6.4 0.00 0.13 0.00 84 1008.5
20260509164820 27 162 3.2 6.4 0.00 0.13 0.00 85 1008.4
20260509164720 27 195 1.6 6.4 0.00 0.13 0.00 85 1008.5
20260509164620 27 169 0.0 6.4 0.00 0.13 0.00 85 1008.5
20260509164520 26 252 0.0 6.4 0.00 0.13 0.00 85 1008.5
20260509164420 26 252 1.6 6.4 0.00 0.13 0.00 85 1008.4
20260509164319 26 252 3.2 6.4 0.00 0.13 0.00 85 1008.4
20260509164220 26 268 3.2 6.4 0.00 0.13 0.00 85 1008.4
20260509164119 26 269 3.2 6.4 0.00 0.13 0.00 85 1008.4
20260509164020 26 276 3.2 6.4 0.00 0.13 0.00 85 1008.5
20260509163920 26 278 3.2 6.4 0.00 0.13 0.00 85 1008.5
20260509163820 26 240 3.2 6.4 0.00 0.13 0.00 85 1008.6
20260509163720 26 240 3.2 6.4 0.00 0.13 0.00 85 1008.6
20260509163621 26 247 3.2 6.4 0.00 0.13 0.00 85 1008.6
20260509163519 26 268 3.2 6.4 0.00 0.13 0.00 85 1008.6
20260509163419 26 264 4.8 6.4 0.00 0.13 0.00 85 1008.6
20260509163320 26 252 3.2 6.4 0.00 0.13 0.00 85 1008.6
20260509163219 26 254 3.2 6.4 0.00 0.13 0.00 84 1008.6
20260509163119 26 254 3.2 6.4 0.00 0.13 0.00 84 1008.6
20260509163019 26 258 3.2 4.8 0.00 0.13 0.00 84 1008.6
20260509162920 26 258 3.2 4.8 0.00 0.13 0.00 85 1008.6
20260509162821 26 326 3.2 4.8 0.00 0.13 0.00 85 1008.6
20260509162721 26 326 3.2 4.8 0.00 0.13 0.00 85 1008.6
20260509162620 26 326 1.6 4.8 0.00 0.13 0.00 85 1008.7
20260509162519 26 326 0.0 4.8 0.00 0.13 0.00 86 1008.6
20260509162419 26 326 0.0 4.8 0.00 0.13 0.00 86 1008.6
20260509162320 26 326 1.6 4.8 0.00 0.13 0.00 85 1008.6
20260509162220 26 326 1.6 4.8 0.00 0.13 0.00 86 1008.6
20260509162120 26 326 0.0 4.8 0.00 0.13 0.00 86 1008.6
20260509162020 26 326 1.6 4.8 0.00 0.13 0.00 86 1008.6
20260509161920 26 326 3.2 6.4 0.00 0.13 0.00 86 1008.6
20260509161820 26 326 1.6 8.0 0.00 0.13 0.00 86 1008.6
20260509161721 26 329 1.6 8.0 0.00 0.13 0.00 87 1008.7
20260509161621 26 329 1.6 8.0 0.00 0.13 0.00 86 1008.7
20260509161519 26 329 1.6 8.0 0.00 0.13 0.00 86 1008.7
20260509161419 26 329 1.6 8.0 0.00 0.13 0.00 87 1008.7
20260509161319 26 329 3.2 8.0 0.00 0.13 0.00 87 1008.7
20260509161220 26 329 3.2 8.0 0.00 0.13 0.00 87 1008.7
20260509161119 26 329 4.8 8.0 0.00 0.13 0.00 87 1008.7
20260509161020 26 329 4.8 8.0 0.00 0.13 0.00 87 1008.7
20260509160920 26 324 4.8 8.0 0.00 0.13 0.00 87 1008.7
20260509160820 26 14 1.6 4.8 0.00 0.13 0.00 87 1008.7
20260509160720 26 14 1.6 4.8 0.00 0.13 0.00 87 1008.8
20260509160620 26 14 1.6 4.8 0.00 0.13 0.00 87 1008.8
20260509160520 26 14 1.6 4.8 0.00 0.13 0.00 87 1008.8
20260509160420 26 14 1.6 6.4 0.00 0.13 0.00 87 1008.7
20260509160318 26 14 1.6 6.4 0.00 0.13 0.00 87 1008.8
20260509160220 26 14 3.2 6.4 0.00 0.13 0.00 87 1008.7
20260509160119 26 14 1.6 6.4 0.00 0.13 0.00 87 1008.8
20260509160019 26 14 1.6 6.4 0.00 0.13 0.00 87 1008.7
20260509155920 26 14 3.2 6.4 0.00 0.13 0.00 87 1008.7
20260509155821 26 14 3.2 6.4 0.00 0.13 0.00 87 1008.7
20260509155719 26 14 3.2 6.4 0.00 0.13 0.00 87 1008.7
20260509155618 26 14 3.2 6.4 0.00 0.13 0.00 87 1008.7
20260509155518 26 14 3.2 6.4 0.00 0.13 0.00 87 1008.7
20260509155418 26 14 3.2 6.4 0.00 0.13 0.00 87 1008.7
20260509155318 26 14 3.2 4.8 0.00 0.13 0.00 87 1008.7
20260509155218 26 13 1.6 4.8 0.00 0.13 0.00 87 1008.7
20260509155118 26 11 0.0 4.8 0.00 0.13 0.00 87 1008.7
20260509155019 26 11 1.6 4.8 0.00 0.13 0.00 88 1008.7
20260509154919 26 11 1.6 4.8 0.00 0.13 0.00 88 1008.6
20260509154819 26 13 3.2 4.8 0.00 0.13 0.00 88 1008.6
20260509154718 26 13 3.2 4.8 0.00 0.13 0.00 88 1008.6
20260509154619 26 13 3.2 6.4 0.00 0.13 0.00 89 1008.6
20260509154518 26 13 1.6 6.4 0.00 0.13 0.00 88 1008.6
20260509154419 26 13 1.6 6.4 0.00 0.13 0.00 88 1008.6
20260509154318 26 13 3.2 6.4 0.00 0.13 0.00 89 1008.6
20260509154218 26 13 1.6 6.4 0.00 0.13 0.00 89 1008.6
20260509154119 26 13 1.6 6.4 0.00 0.13 0.00 89 1008.6
20260509154019 26 13 1.6 6.4 0.00 0.13 0.00 89 1008.6
20260509153918 26 13 3.2 6.4 0.00 0.13 0.00 90 1008.6
20260509153818 26 13 4.8 6.4 0.00 0.13 0.00 90 1008.5
20260509153719 26 14 3.2 6.4 0.00 0.13 0.00 90 1008.6
20260509153619 26 354 3.2 4.8 0.00 0.13 0.00 90 1008.6
20260509153518 26 354 1.6 4.8 0.00 0.13 0.00 90 1008.6
20260509153420 26 353 1.6 4.8 0.00 0.13 0.00 90 1008.7
20260509153319 26 351 3.2 4.8 0.00 0.13 0.00 90 1008.8
20260509153218 26 214 3.2 4.8 0.00 0.13 0.00 90 1008.8
20260509153119 26 219 1.6 3.2 0.00 0.13 0.00 90 1008.8
20260509153018 26 204 0.0 3.2 0.00 0.13 0.00 91 1008.8
20260509152918 25 0 0.0 3.2 0.00 0.13 0.00 91 1008.7
20260509152818 25 286 0.0 3.2 0.00 0.13 0.00 91 1008.7
20260509152719 25 290 0.0 3.2 0.00 0.13 0.00 91 1008.7
20260509152618 25 295 1.6 4.8 0.00 0.13 0.00 91 1008.7
20260509152518 25 298 1.6 4.8 0.00 0.13 0.00 91 1008.7
20260509152420 25 298 1.6 4.8 0.00 0.13 0.00 92 1008.7
20260509152317 25 300 0.0 4.8 0.00 0.13 0.00 92 1008.6
20260509152219 25 303 0.0 4.8 0.00 0.13 0.00 92 1008.7
20260509152118 25 303 0.0 4.8 0.00 0.13 0.00 92 1008.7
20260509152020 25 305 1.6 4.8 0.00 0.13 0.00 92 1008.7
20260509151918 25 305 3.2 4.8 0.00 0.13 0.00 92 1008.7
20260509151818 25 303 3.2 4.8 0.00 0.13 0.00 92 1008.7
20260509151718 25 302 1.6 4.8 0.00 0.13 0.00 92 1008.8
20260509151619 25 300 1.6 4.8 0.00 0.13 0.00 92 1008.9
20260509151517 25 300 1.6 4.8 0.00 0.13 0.00 93 1008.9
20260509151417 25 298 1.6 4.8 0.00 0.13 0.00 92 1008.9
20260509151320 25 305 3.2 4.8 0.00 0.13 0.00 92 1008.9
20260509151218 25 306 3.2 4.8 0.00 0.13 0.00 92 1008.9
20260509151118 25 302 3.2 4.8 0.00 0.13 0.00 92 1008.8
20260509151017 25 303 3.2 4.8 0.00 0.13 0.00 93 1008.8
20260509150919 25 302 1.6 4.8 0.00 0.13 0.00 93 1008.9
20260509150819 25 303 3.2 4.8 0.00 0.13 0.00 93 1008.8
20260509150718 25 303 3.2 4.8 0.00 0.13 0.00 92 1008.7
20260509150618 25 302 3.2 4.8 0.00 0.13 0.00 93 1008.7
20260509150518 25 300 3.2 4.8 0.00 0.13 0.00 93 1008.7
20260509150417 25 302 1.6 4.8 0.00 0.13 0.00 93 1008.7
20260509150318 25 299 3.2 4.8 0.00 0.13 0.00 93 1008.7
20260509150218 25 292 3.2 4.8 0.00 0.13 0.00 93 1008.7
20260509150117 25 296 3.2 4.8 0.00 0.13 0.00 93 1008.7
20260509150017 25 299 3.2 4.8 0.00 0.13 0.00 93 1008.6
20260509145918 25 299 3.2 4.8 0.00 0.13 0.00 93 1008.6
20260509145817 25 299 3.2 4.8 0.00 0.13 0.00 93 1008.5
20260509145717 25 302 1.6 4.8 0.00 0.13 0.00 93 1008.5
20260509145618 25 299 3.2 4.8 0.00 0.13 0.00 94 1008.5
20260509145517 25 300 3.2 4.8 0.00 0.13 0.00 94 1008.5
20260509145417 25 298 3.2 4.8 0.00 0.13 0.00 94 1008.4
20260509145317 25 298 3.2 4.8 0.00 0.13 0.00 94 1008.4
20260509145218 25 299 1.6 4.8 0.00 0.13 0.00 94 1008.4
20260509145117 25 245 0.0 3.2 0.00 0.13 0.00 94 1008.4
20260509145018 25 244 1.6 3.2 0.00 0.13 0.00 94 1008.4
20260509144918 25 241 1.6 3.2 0.00 0.13 0.00 95 1008.4
20260509144817 25 241 1.6 3.2 0.00 0.13 0.00 94 1008.4
20260509144718 25 241 1.6 3.2 0.00 0.13 0.00 94 1008.4
20260509144617 25 244 0.0 3.2 0.00 0.13 0.00 95 1008.5
20260509144517 25 243 0.0 3.2 0.00 0.13 0.00 95 1008.4
20260509144418 25 243 0.0 3.2 0.00 0.13 0.00 95 1008.4
20260509144303 25 243 0.0 3.2 0.00 0.13 0.00 95 1008.4
20260509144204 25 243 1.6 3.2 0.00 0.13 0.00 95 1008.4
20260509144105 25 244 1.6 3.2 0.00 0.13 0.00 95 1008.4
20260509144002 25 241 0.0 0.0 0.00 0.13 0.00 95 1008.3
20260509143902 25 243 0.0 0.0 0.00 0.13 0.00 95 1008.3
20260509143802 24 245 0.0 0.0 0.00 0.13 0.00 96 1008.3
20260509143702 24 244 0.0 0.0 0.00 0.13 0.00 96 1008.4
20260509143602 24 247 0.0 0.0 0.00 0.13 0.00 96 1008.3
20260509143504 24 245 0.0 1.6 0.00 0.13 0.00 96 1008.4
20260509143403 24 248 0.0 3.2 0.00 0.13 0.00 96 1008.3
20260509143301 24 248 0.0 3.2 0.00 0.13 0.00 96 1008.4
20260509143203 24 248 0.0 3.2 0.00 0.13 0.00 96 1008.4
20260509143103 24 247 0.0 3.2 0.00 0.13 0.00 96 1008.4
20260509143002 24 245 0.0 3.2 0.00 0.13 0.00 96 1008.4
20260509142904 24 247 0.0 3.2 0.00 0.13 0.00 96 1008.5
20260509142803 24 245 0.0 3.2 0.00 0.13 0.00 96 1008.5
20260509142702 24 245 0.0 3.2 0.00 0.13 0.00 96 1008.5
20260509142602 24 245 1.6 3.2 0.00 0.13 0.00 96 1008.4
20260509142503 24 245 1.6 3.2 0.00 0.13 0.00 96 1008.4
20260509142403 24 245 1.6 3.2 0.00 0.13 0.00 96 1008.4
20260509142301 24 245 0.0 3.2 0.00 0.13 0.00 97 1008.4
20260509142203 24 247 0.0 3.2 0.00 0.13 0.00 97 1008.2
20260509142103 24 244 0.0 3.2 0.00 0.13 0.00 97 1008.1
20260509142004 24 245 0.0 3.2 0.00 0.13 0.00 97 1008.2
20260509141902 24 243 0.0 3.2 0.00 0.13 0.00 97 1008.2
20260509141802 24 244 1.6 3.2 0.00 0.13 0.00 97 1008.2
20260509141701 24 245 1.6 3.2 0.00 0.13 0.00 97 1008.2
20260509141601 24 245 0.0 3.2 0.00 0.13 0.00 97 1008.1
20260509141458 24 245 0.0 0.0 0.00 0.13 0.00 97 1008.1
20260509141354 24 244 0.0 0.0 0.00 0.13 0.00 97 1007.9
20260509141253 24 244 0.0 3.2 0.00 0.13 0.00 97 1007.9
20260509141149 24 245 0.0 3.2 0.00 0.13 0.00 97 1007.9
20260509141050 24 243 0.0 3.2 0.00 0.13 0.00 97 1007.9
20260509140945 24 244 0.0 4.8 0.00 0.13 0.00 97 1007.9
20260509140845 24 243 0.0 4.8 0.00 0.13 0.00 97 1007.9
20260509140742 24 241 0.0 4.8 0.00 0.13 0.00 97 1008.0
20260509140640 23 240 0.0 4.8 0.00 0.13 0.00 97 1008.0
20260509140539 23 241 0.0 4.8 0.00 0.13 0.00 97 1008.0
20260509140438 23 241 1.6 4.8 0.00 0.13 0.00 97 1008.1
20260509140336 23 241 3.2 4.8 0.00 0.13 0.00 97 1008.2
20260509140234 23 243 3.2 4.8 0.00 0.13 0.00 97 1008.1
20260509140133 23 243 3.2 4.8 0.00 0.13 0.00 97 1008.2
20260509140034 23 243 3.2 4.8 0.00 0.13 0.00 97 1008.1
20260509135931 24 243 1.6 4.8 0.00 0.13 0.00 98 1008.1
20260509135831 24 125 0.0 4.8 0.00 0.13 0.00 98 1008.0
20260509135732 24 125 0.0 9.7 0.00 0.13 0.00 98 1008.0
20260509135631 23 125 1.6 9.7 0.00 0.13 0.00 98 1008.0
20260509135530 23 125 1.6 9.7 0.00 0.13 0.00 98 1007.9
20260509135431 23 131 1.6 9.7 0.00 0.13 0.00 98 1008.0
20260509135330 24 149 1.6 9.7 0.00 0.13 0.00 98 1008.0
20260509135231 23 151 1.6 9.7 0.00 0.13 0.00 98 1008.0
20260509135128 23 149 3.2 9.7 0.00 0.13 0.00 98 1008.0
20260509135027 23 157 3.2 9.7 0.00 0.13 0.00 98 1008.1
20260509134926 23 162 4.8 9.7 0.00 0.13 0.00 98 1008.1
20260509134825 23 168 6.4 9.7 0.00 0.13 0.00 98 1008.1
20260509134723 23 164 4.8 9.7 0.00 0.13 0.00 98 1008.1
20260509134621 23 210 4.8 9.7 0.00 0.13 0.00 98 1008.2
20260509134520 24 203 6.4 11.3 0.00 0.13 0.00 98 1008.3
20260509134417 24 235 4.8 11.3 0.00 0.13 0.00 98 1008.3
20260509134317 24 214 4.8 11.3 0.00 0.13 0.00 98 1008.4
20260509134216 24 195 4.8 11.3 0.00 0.13 0.00 98 1008.4
20260509134116 23 121 6.4 11.3 0.00 0.13 0.00 98 1008.3
20260509134015 24 159 4.8 11.3 0.00 0.13 0.00 98 1008.3
20260509133917 24 180 4.8 11.3 0.00 0.13 0.00 98 1008.2
20260509133816 24 134 4.8 11.3 0.00 0.13 0.00 98 1008.1
20260509133715 24 164 6.4 11.3 0.00 0.13 0.00 98 1008.0
20260509133616 23 131 6.4 11.3 0.00 0.13 0.00 98 1008.0
20260509133515 23 116 4.8 8.0 0.00 0.13 0.00 98 1008.0
20260509133416 23 151 3.2 8.0 0.00 0.13 0.00 98 1008.0
20260509133315 23 114 3.2 8.0 0.00 0.13 0.00 98 1008.1
20260509133216 23 186 3.2 8.0 0.00 0.13 0.00 98 1008.1
20260509133116 23 142 3.2 8.0 0.00 0.13 0.00 98 1008.3
20260509133016 23 144 3.2 8.0 0.00 0.13 0.00 98 1008.4
20260509132917 23 154 4.8 8.0 0.00 0.13 0.00 98 1008.4
20260509132815 23 159 3.2 6.4 0.00 0.13 0.00 98 1008.5
20260509132715 23 135 0.0 4.8 0.00 0.13 0.00 99 1008.5
20260509132616 23 275 0.0 1.6 0.00 0.13 0.00 99 1008.5
20260509132516 23 275 0.0 1.6 0.00 0.13 0.00 98 1008.6
20260509132416 23 278 0.0 1.6 0.00 0.13 0.00 98 1008.6
20260509132315 23 275 0.0 1.6 0.00 0.13 0.00 98 1008.6
20260509132216 23 276 0.0 1.6 0.00 0.13 0.00 98 1008.6
20260509132116 23 274 0.0 1.6 0.00 0.13 0.00 98 1008.5
20260509132016 23 272 0.0 1.6 0.00 0.13 0.00 98 1008.5
20260509131917 23 262 0.0 3.2 0.00 0.13 0.00 98 1008.6
20260509131815 23 278 0.0 3.2 0.00 0.13 0.00 98 1008.6
20260509131715 23 293 0.0 4.8 0.00 0.13 0.00 98 1008.6
20260509131615 23 305 0.0 4.8 0.00 0.13 0.00 98 1008.5
20260509131515 23 309 0.0 4.8 0.00 0.13 0.00 98 1008.6
20260509131415 23 312 0.0 4.8 0.00 0.13 0.00 98 1008.6
20260509131315 23 313 0.0 4.8 0.00 0.13 0.00 98 1008.7
20260509131217 23 313 0.0 4.8 0.00 0.13 0.00 98 1008.7
20260509131116 23 313 0.0 4.8 0.00 0.13 0.00 98 1008.7
20260509131016 23 314 1.6 4.8 0.00 0.13 0.00 98 1008.8
20260509130915 23 314 3.2 4.8 0.00 0.13 0.00 98 1008.9
20260509130817 23 314 3.2 4.8 0.00 0.13 0.00 98 1008.9
20260509130715 23 314 1.6 3.2 0.00 0.13 0.00 98 1008.9
20260509130615 23 314 1.6 3.2 0.00 0.13 0.00 98 1008.9
20260509130516 23 314 1.6 3.2 0.00 0.13 0.00 98 1008.9
20260509130415 23 314 1.6 3.2 0.00 0.13 0.00 98 1008.9
20260509130315 23 314 0.0 1.6 0.00 0.13 0.00 98 1008.9
20260509130217 23 314 0.0 1.6 0.00 0.13 0.00 98 1008.9
20260509130115 23 314 0.0 1.6 0.00 0.13 0.00 98 1008.9
20260509130015 23 314 0.0 1.6 0.00 0.13 0.00 98 1009.0
20260509125915 23 314 0.0 3.2 0.00 0.13 0.00 98 1008.9
20260509125815 23 314 0.0 4.8 0.00 0.13 0.00 98 1008.9
20260509125714 23 314 0.0 4.8 0.00 0.13 0.00 98 1009.0
20260509125616 23 314 1.6 4.8 0.00 0.13 0.00 98 1008.9
20260509125515 23 314 0.0 4.8 0.00 0.13 0.00 98 1009.0
20260509125416 23 314 0.0 4.8 0.00 0.13 0.00 98 1009.0
20260509125314 23 314 0.0 4.8 0.00 0.13 0.00 98 1009.0
20260509125214 23 314 0.0 4.8 0.00 0.13 0.00 98 1009.0
20260509125116 23 314 1.6 4.8 0.00 0.13 0.00 98 1009.0
20260509125014 23 314 3.2 4.8 0.00 0.13 0.00 98 1009.0
20260509124914 23 314 3.2 4.8 0.00 0.13 0.00 98 1009.0
20260509124814 23 314 1.6 4.8 0.00 0.13 0.00 98 1008.9
20260509124716 23 314 1.6 4.8 0.00 0.13 0.00 98 1008.9
20260509124614 23 314 3.2 4.8 0.00 0.13 0.00 98 1008.8
20260509124515 23 306 1.6 4.8 0.00 0.13 0.00 98 1008.8
20260509124417 23 306 1.6 4.8 0.00 0.13 0.00 98 1008.8
20260509124315 23 306 1.6 4.8 0.00 0.13 0.00 98 1008.7
20260509124215 23 306 1.6 4.8 0.00 0.13 0.00 98 1008.8
20260509124115 23 306 1.6 4.8 0.00 0.13 0.00 98 1008.7
20260509124016 23 306 3.2 4.8 0.00 0.13 0.00 98 1008.7
20260509123914 23 306 3.2 4.8 0.00 0.13 0.00 98 1008.7
20260509123814 23 306 1.6 4.8 0.00 0.13 0.00 98 1008.6
20260509123716 23 306 1.6 4.8 0.00 0.13 0.00 98 1008.6
20260509123615 23 306 1.6 6.4 0.00 0.13 0.00 98 1008.7
20260509123515 23 306 3.2 6.4 0.00 0.13 0.00 98 1008.6
20260509123415 23 306 1.6 6.4 0.00 0.13 0.00 98 1008.6
20260509123315 23 306 1.6 6.4 0.00 0.13 0.00 98 1008.5
20260509123215 23 306 1.6 6.4 0.00 0.13 0.00 98 1008.5
20260509123114 23 306 1.6 6.4 0.00 0.13 0.00 98 1008.5
20260509123014 23 306 3.2 6.4 0.00 0.13 0.00 98 1008.4
20260509122914 23 306 3.2 6.4 0.00 0.13 0.00 98 1008.5
20260509122816 23 306 3.2 6.4 0.00 0.13 0.00 98 1008.5
20260509122715 23 306 4.8 6.4 0.00 0.13 0.00 98 1008.6
20260509122615 23 306 4.8 6.4 0.00 0.13 0.00 98 1008.5
20260509122513 23 306 4.8 6.4 0.00 0.13 0.00 98 1008.5
20260509122414 23 299 3.2 6.4 0.00 0.13 0.00 98 1008.4
20260509122316 23 299 3.2 6.4 0.00 0.13 0.00 98 1008.4
20260509122214 23 240 3.2 6.4 0.00 0.13 0.00 98 1008.3
20260509122115 23 240 4.8 6.4 0.00 0.13 0.00 98 1008.3
20260509122014 23 240 4.8 6.4 0.00 0.13 0.00 98 1008.3
20260509121913 23 221 3.2 6.4 0.00 0.13 0.00 98 1008.2
20260509121815 23 220 3.2 6.4 0.00 0.13 0.00 98 1008.2
20260509121714 23 204 3.2 6.4 0.00 0.13 0.00 98 1008.1
20260509121615 23 182 4.8 6.4 0.00 0.13 0.00 98 1008.1
20260509121514 23 189 3.2 6.4 0.00 0.13 0.00 98 1008.0
20260509121414 23 164 1.6 6.4 0.00 0.13 0.00 98 1008.0
20260509121313 23 165 1.6 6.4 0.00 0.13 0.00 98 1008.0
20260509121213 23 188 1.6 8.0 0.00 0.13 0.00 98 1008.1
20260509121114 23 219 3.2 8.0 0.00 0.13 0.00 98 1008.0
20260509121015 23 224 3.2 8.0 0.00 0.13 0.00 98 1008.0
20260509120915 23 223 3.2 8.0 0.00 0.13 0.00 98 1008.0
20260509120813 23 223 3.2 9.7 0.00 0.13 0.00 98 1008.0
20260509120713 23 223 3.2 9.7 0.00 0.13 0.00 98 1007.9
20260509120615 22 204 3.2 9.7 0.00 0.13 0.00 98 1007.9
20260509120514 22 203 4.8 9.7 0.00 0.13 0.00 98 1007.8
20260509120413 22 186 4.8 9.7 0.00 0.13 0.00 98 1007.9
20260509120313 22 195 6.4 9.7 0.00 0.13 0.00 98 1007.9
20260509120215 22 183 4.8 9.7 0.00 0.13 0.00 98 1007.9
20260509120114 22 175 4.8 9.7 0.00 0.13 0.00 98 1007.8
20260509120013 22 171 6.4 9.7 0.00 0.13 0.00 98 1007.9
20260509115915 22 172 6.4 9.7 0.00 0.13 0.00 98 1008.0
20260509115813 22 186 4.8 8.0 0.00 0.13 0.00 98 1008.0
20260509115713 22 164 4.8 8.0 0.00 0.13 0.00 98 1008.0
20260509115614 22 195 4.8 8.0 0.00 0.13 0.00 98 1008.0
20260509115513 22 179 3.2 6.4 0.00 0.13 0.00 98 1008.0
20260509115413 22 183 3.2 6.4 0.00 0.13 0.00 98 1008.0
20260509115313 22 179 3.2 6.4 0.00 0.13 0.00 98 1008.0
20260509115214 22 353 1.6 4.8 0.00 0.13 0.00 98 1007.9
20260509115113 22 0 0.0 3.2 0.00 0.13 0.00 98 1008.0
20260509115014 22 0 0.0 0.0 0.00 0.13 0.00 98 1008.0
20260509114915 22 0 0.0 0.0 0.00 0.13 0.00 98 1008.0
20260509114813 22 0 0.0 0.0 0.00 0.13 0.00 98 1008.0
20260509114713 22 0 0.0 3.2 0.00 0.13 0.00 98 1007.9
20260509114613 22 0 0.0 3.2 0.00 0.13 0.00 98 1008.0
20260509114514 22 0 0.0 3.2 0.00 0.13 0.00 98 1008.0
20260509114413 22 0 0.0 3.2 0.00 0.13 0.00 98 1008.0
20260509114314 22 0 0.0 4.8 0.00 0.13 0.00 98 1008.0
20260509114215 22 0 0.0 4.8 0.00 0.13 0.00 98 1008.1
20260509114113 22 0 0.0 6.4 0.00 0.13 0.00 98 1008.1
20260509114013 22 0 0.0 6.4 0.00 0.13 0.00 98 1008.2
20260509113914 22 0 0.0 6.4 0.00 0.13 0.00 98 1008.1
20260509113815 22 0 1.6 6.4 0.00 0.13 0.00 98 1008.1
20260509113713 22 0 1.6 6.4 0.00 0.13 0.00 98 1008.1
20260509113612 22 0 1.6 6.4 0.00 0.13 0.00 98 1008.1
20260509113513 22 0 1.6 6.4 0.00 0.13 0.00 98 1008.1
20260509113414 22 0 3.2 6.4 0.00 0.13 0.00 98 1008.2
20260509113314 22 0 3.2 6.4 0.00 0.13 0.00 98 1008.1
20260509113214 22 0 4.8 6.4 0.00 0.13 0.00 98 1008.2
20260509113115 22 0 3.2 4.8 0.00 0.13 0.00 98 1008.1
20260509113012 22 0 3.2 4.8 0.00 0.13 0.00 98 1008.1
20260509112912 22 0 1.6 4.8 0.00 0.13 0.00 98 1008.2
20260509112813 22 0 0.0 4.8 0.00 0.13 0.00 98 1008.3
20260509112712 22 0 0.0 4.8 0.00 0.13 0.00 98 1008.4
20260509112612 22 0 0.0 4.8 0.00 0.13 0.00 98 1008.4
20260509112512 22 0 0.0 4.8 0.00 0.13 0.00 98 1008.5
20260509112413 22 0 0.0 4.8 0.00 0.13 0.00 98 1008.5
20260509112310 22 0 1.6 4.8 0.00 0.13 0.00 98 1008.4
20260509112210 22 0 1.6 4.8 0.00 0.13 0.00 98 1008.5
20260509112109 22 0 1.6 4.8 0.00 0.13 0.00 98 1008.5
20260509112006 22 0 0.0 6.4 0.00 0.13 0.00 98 1008.5
20260509111904 22 0 0.0 6.4 0.00 0.13 0.00 98 1008.5
20260509111804 22 0 0.0 6.4 0.00 0.13 0.00 98 1008.5
20260509111704 22 0 0.0 9.7 0.00 0.13 0.00 98 1008.6
20260509111604 22 0 1.6 9.7 0.00 0.13 0.00 98 1008.6
20260509111504 22 0 3.2 9.7 0.00 0.13 0.00 98 1008.6
20260509111402 22 0 3.2 9.7 0.00 0.13 0.00 98 1008.7
20260509111301 22 0 3.2 9.7 0.00 0.13 0.00 98 1008.7
20260509111202 22 0 3.2 9.7 0.00 0.13 0.00 98 1008.8
20260509111104 22 0 3.2 9.7 0.00 0.13 0.00 98 1008.6
20260509111003 22 353 3.2 9.7 0.00 0.13 0.00 98 1008.6
20260509110903 22 353 6.4 9.7 0.00 0.13 0.00 98 1008.6
20260509110802 22 4 6.4 9.7 0.00 0.13 0.00 98 1008.6
20260509110703 22 350 6.4 8.0 0.00 0.13 0.00 98 1008.5
20260509110602 22 343 6.4 8.0 0.00 0.13 0.00 98 1008.5
20260509110503 22 0 4.8 8.0 0.00 0.13 0.00 98 1008.5
20260509110404 22 353 3.2 6.4 0.00 0.13 0.00 98 1008.5
20260509110302 22 353 4.8 6.4 0.00 0.13 0.00 98 1008.5
20260509110202 22 353 3.2 6.4 0.00 0.13 0.00 98 1008.5
20260509110103 22 0 3.2 6.4 0.00 0.13 0.00 98 1008.4
20260509110004 22 0 3.2 6.4 0.00 0.13 0.00 98 1008.4
20260509105902 22 0 4.8 6.4 0.00 0.13 0.00 98 1008.4
20260509105802 22 341 4.8 6.4 0.00 0.13 0.00 98 1008.3
20260509105703 22 344 4.8 6.4 0.00 0.13 0.00 98 1008.3
20260509105603 22 353 3.2 6.4 0.00 0.13 0.00 98 1008.3
20260509105504 22 353 4.8 6.4 0.00 0.13 0.00 98 1008.2
20260509105402 22 353 3.2 6.4 0.00 0.13 0.00 98 1008.2
20260509105306 22 18 3.2 4.8 0.00 0.13 0.00 98 1008.1
20260509105204 22 18 3.2 4.8 0.00 0.13 0.00 98 1008.1
20260509105103 22 18 3.2 4.8 0.00 0.13 0.00 98 1008.1
20260509105005 22 23 3.2 4.8 0.00 0.13 0.00 98 1008.0
20260509104903 22 23 3.2 4.8 0.00 0.13 0.00 98 1008.0
20260509104802 22 23 3.2 4.8 0.00 0.13 0.00 98 1008.0
20260509104702 22 24 3.2 4.8 0.00 0.13 0.00 98 1008.0
20260509104603 22 24 3.2 4.8 0.00 0.13 0.00 98 1008.0
20260509104504 22 24 3.2 4.8 0.00 0.13 0.00 98 1008.0
20260509104402 22 25 3.2 4.8 0.00 0.13 0.00 98 1008.0
20260509104304 22 56 1.6 4.8 0.00 0.13 0.00 98 1008.0
20260509104202 22 72 0.0 3.2 0.00 0.13 0.00 98 1007.9
20260509104108 22 72 0.0 1.6 0.00 0.13 0.00 98 1007.9
20260509104004 22 145 0.0 1.6 0.00 0.13 0.00 98 1007.9
20260509103903 22 145 0.0 1.6 0.00 0.13 0.00 98 1007.9
20260509103802 22 145 0.0 1.6 0.00 0.13 0.00 98 1007.9
20260509103659 22 145 0.0 1.6 0.00 0.13 0.00 98 1007.9
20260509103557 22 145 0.0 1.6 0.00 0.13 0.00 98 1008.0
20260509103456 22 145 0.0 4.8 0.00 0.13 0.00 98 1007.9
20260509103356 22 145 0.0 4.8 0.00 0.13 0.00 98 1007.9
20260509103253 22 145 0.0 4.8 0.00 0.13 0.00 98 1007.8
20260509103153 22 145 0.0 4.8 0.00 0.13 0.00 98 1007.9
20260509103050 22 145 0.0 4.8 0.00 0.13 0.00 98 1007.9
20260509102948 22 145 0.0 4.8 0.00 0.13 0.00 98 1007.8
20260509102848 22 145 0.0 4.8 0.00 0.13 0.00 98 1007.8
20260509102746 22 145 1.6 4.8 0.00 0.13 0.00 98 1007.9
20260509102644 22 145 1.6 4.8 0.00 0.13 0.00 98 1007.8
20260509102542 22 145 3.2 4.8 0.00 0.13 0.00 98 1007.9
20260509102441 22 172 3.2 4.8 0.00 0.13 0.00 98 1007.8
20260509102339 22 97 1.6 4.8 0.00 0.13 0.00 98 1007.7
20260509102239 22 97 1.6 4.8 0.00 0.13 0.00 98 1007.7
20260509102134 22 96 1.6 4.8 0.00 0.13 0.00 98 1007.6
20260509102032 22 96 1.6 4.8 0.00 0.13 0.00 98 1007.5
20260509101930 22 93 1.6 4.8 0.00 0.13 0.00 98 1007.6
20260509101832 22 92 1.6 4.8 0.00 0.13 0.00 98 1007.6
20260509101732 22 141 3.2 4.8 0.00 0.13 0.00 98 1007.6
20260509101633 22 147 3.2 4.8 0.00 0.13 0.00 98 1007.5
20260509101533 22 127 3.2 4.8 0.00 0.13 0.00 98 1007.5
20260509101432 22 137 3.2 4.8 0.00 0.13 0.00 98 1007.4
20260509101332 22 142 3.2 4.8 0.00 0.13 0.00 98 1007.4
20260509101230 22 142 3.2 4.8 0.00 0.13 0.00 98 1007.4
20260509101132 22 135 3.2 4.8 0.00 0.13 0.00 98 1007.4
20260509101030 22 90 1.6 4.8 0.00 0.13 0.00 98 1007.4
20260509100928 22 87 1.6 4.8 0.00 0.13 0.00 98 1007.4
20260509100827 22 87 1.6 4.8 0.00 0.13 0.00 98 1007.4
20260509100725 22 35 1.6 3.2 0.00 0.13 0.00 98 1007.4
20260509100624 22 35 1.6 3.2 0.00 0.13 0.00 98 1007.5
20260509100519 22 7 1.6 3.2 0.00 0.13 0.00 98 1007.4
20260509100419 22 338 1.6 3.2 0.00 0.13 0.00 98 1007.5
20260509100318 22 338 0.0 3.2 0.00 0.13 0.00 98 1007.4
20260509100218 22 338 1.6 3.2 0.00 0.13 0.00 98 1007.5
20260509100118 22 338 1.6 3.2 0.00 0.13 0.00 98 1007.5
20260509100016 22 338 1.6 3.2 0.00 0.13 0.00 98 1007.5
20260509095915 22 338 1.6 3.2 0.00 0.13 0.00 98 1007.4
20260509095815 22 338 1.6 3.2 0.00 0.13 0.00 98 1007.3
20260509095712 22 338 1.6 3.2 0.00 0.13 0.00 98 1007.3
20260509095611 22 338 0.0 3.2 0.00 0.13 0.00 98 1007.3
20260509095510 22 338 0.0 3.2 0.00 0.13 0.00 98 1007.3
20260509095411 22 338 1.6 3.2 0.00 0.13 0.00 98 1007.3
20260509095311 22 338 1.6 3.2 0.00 0.13 0.00 98 1007.3
20260509095210 22 338 0.0 3.2 0.00 0.13 0.00 98 1007.3
20260509095110 22 338 0.0 3.2 0.00 0.13 0.00 98 1007.2
20260509095010 22 338 0.0 3.2 0.00 0.13 0.00 98 1007.2
20260509094910 22 338 0.0 4.8 0.00 0.13 0.00 98 1007.2
20260509094810 22 338 0.0 4.8 0.00 0.13 0.00 98 1007.2
20260509094711 22 338 0.0 4.8 0.00 0.13 0.00 98 1007.2
20260509094610 22 338 0.0 4.8 0.00 0.13 0.00 98 1007.2
20260509094511 22 338 0.0 6.4 0.00 0.13 0.00 98 1007.2
20260509094412 22 338 0.0 6.4 0.00 0.13 0.00 98 1007.3
20260509094310 22 338 0.0 6.4 0.00 0.13 0.00 98 1007.4
20260509094211 22 338 1.6 6.4 0.00 0.13 0.00 98 1007.3
20260509094110 22 338 3.2 6.4 0.00 0.13 0.00 98 1007.3
20260509094013 22 338 3.2 6.4 0.00 0.13 0.00 98 1007.5
20260509093911 22 338 3.2 6.4 0.00 0.13 0.00 98 1007.5
20260509093810 22 338 3.2 6.4 0.00 0.13 0.00 98 1007.5
20260509093710 22 338 4.8 6.4 0.00 0.13 0.00 98 1007.5
20260509093611 22 338 4.8 6.4 0.00 0.13 0.00 98 1007.5
20260509093510 22 338 3.2 4.8 0.00 0.13 0.00 98 1007.5
20260509093410 22 338 3.2 4.8 0.00 0.13 0.00 98 1007.5
20260509093311 22 337 3.2 4.8 0.00 0.13 0.00 98 1007.5
20260509093211 22 337 1.6 4.8 0.00 0.13 0.00 98 1007.6
20260509093111 22 337 1.6 4.8 0.00 0.13 0.00 98 1007.6
20260509093011 22 337 3.2 4.8 0.00 0.13 0.00 98 1007.6
20260509092909 22 337 3.2 4.8 0.00 0.13 0.00 98 1007.7
20260509092810 22 337 3.2 4.8 0.00 0.13 0.00 98 1007.7
20260509092711 22 337 1.6 3.2 0.00 0.13 0.00 98 1007.7
20260509092611 22 337 1.6 3.2 0.00 0.13 0.00 98 1007.8
20260509092509 22 337 1.6 3.2 0.00 0.13 0.00 98 1007.7
20260509092409 22 337 1.6 3.2 0.00 0.13 0.00 98 1007.9
20260509092312 22 337 1.6 3.2 0.00 0.13 0.00 98 1008.0
20260509092210 22 337 1.6 3.2 0.00 0.13 0.00 98 1008.0
20260509092110 22 337 1.6 3.2 0.00 0.13 0.00 98 1008.0
20260509092010 22 337 1.6 3.2 0.00 0.13 0.00 98 1008.0
20260509091911 22 337 1.6 3.2 0.00 0.13 0.00 98 1007.9
20260509091810 22 337 1.6 3.2 0.00 0.13 0.00 98 1007.9
20260509091710 22 337 1.6 3.2 0.00 0.13 0.00 98 1007.9
20260509091610 22 337 0.0 3.2 0.00 0.13 0.00 98 1008.0
20260509091509 22 337 0.0 3.2 0.00 0.13 0.00 98 1008.0
20260509091410 22 337 0.0 4.8 0.00 0.13 0.00 98 1008.0
20260509091309 22 337 0.0 4.8 0.00 0.13 0.00 98 1007.9
20260509091211 22 337 0.0 4.8 0.00 0.13 0.00 98 1007.8
20260509091110 22 337 1.6 4.8 0.00 0.13 0.00 98 1007.8
20260509091010 22 337 1.6 4.8 0.00 0.13 0.00 98 1007.8
20260509090910 22 337 3.2 4.8 0.00 0.13 0.00 98 1007.8
20260509090809 22 337 3.2 4.8 0.00 0.13 0.00 98 1007.8
20260509090710 22 337 3.2 4.8 0.00 0.13 0.00 98 1007.8
20260509090610 22 337 3.2 4.8 0.00 0.13 0.00 98 1007.8
20260509090510 22 337 3.2 4.8 0.00 0.13 0.00 98 1007.8
20260509090409 22 337 3.2 4.8 0.00 0.13 0.00 98 1007.8
20260509090309 22 337 3.2 4.8 0.00 0.13 0.00 98 1007.9
20260509090211 22 341 4.8 4.8 0.00 0.13 0.00 98 1007.9
20260509090110 22 347 3.2 4.8 0.00 0.13 0.00 98 1007.9
20260509090009 22 353 3.2 4.8 0.00 0.13 0.00 98 1007.9
20260509085910 22 23 3.2 4.8 0.00 0.13 0.00 98 1007.8
20260509085809 22 23 3.2 4.8 0.00 0.13 0.00 98 1007.8
20260509085709 22 23 3.2 4.8 0.00 0.13 0.00 98 1007.8
20260509085609 22 23 3.2 4.8 0.00 0.13 0.00 97 1007.7
20260509085510 22 23 3.2 4.8 0.00 0.13 0.00 97 1007.7
20260509085409 22 72 1.6 3.2 0.00 0.13 0.00 97 1007.7
20260509085308 22 72 0.0 0.0 0.00 0.13 0.00 97 1007.6
20260509085211 22 72 0.0 0.0 0.00 0.13 0.00 98 1007.6
20260509085109 22 72 0.0 0.0 0.00 0.13 0.00 98 1007.6
20260509085009 22 72 0.0 0.0 0.00 0.13 0.00 98 1007.6
20260509084909 22 72 0.0 0.0 0.00 0.13 0.00 98 1007.6
20260509084811 22 72 0.0 0.0 0.00 0.13 0.00 98 1007.6
20260509084708 22 72 0.0 0.0 0.00 0.13 0.00 98 1007.6
20260509084609 22 72 0.0 0.0 0.00 0.13 0.00 98 1007.6
20260509084510 22 72 0.0 0.0 0.00 0.13 0.00 98 1007.7
20260509084408 22 72 0.0 0.0 0.00 0.13 0.00 98 1007.7
20260509084309 22 72 0.0 1.6 0.00 0.13 0.00 98 1007.6
20260509084210 22 72 0.0 1.6 0.00 0.13 0.00 98 1007.7
20260509084111 22 72 0.0 3.2 0.00 0.13 0.00 98 1007.7
20260509084008 22 72 0.0 3.2 0.00 0.13 0.00 98 1007.8
20260509083909 22 72 0.0 3.2 0.00 0.13 0.00 98 1007.7
20260509083809 22 72 0.0 3.2 0.00 0.13 0.00 98 1007.7
20260509083709 22 72 0.0 3.2 0.00 0.13 0.00 98 1007.7
20260509083608 22 72 0.0 3.2 0.00 0.13 0.00 98 1007.6
20260509083509 22 72 0.0 3.2 0.00 0.13 0.00 98 1007.6
20260509083410 22 72 0.0 3.2 0.00 0.13 0.00 98 1007.5
20260509083308 22 72 1.6 3.2 0.00 0.13 0.00 97 1007.6
20260509083208 22 72 1.6 3.2 0.00 0.13 0.00 97 1007.7
20260509083109 22 72 1.6 3.2 0.00 0.13 0.00 97 1007.7
20260509083008 22 72 1.6 3.2 0.00 0.13 0.00 97 1007.7
20260509082909 22 72 1.6 3.2 0.00 0.13 0.00 97 1007.6
20260509082809 22 72 1.6 3.2 0.00 0.13 0.00 97 1007.6
20260509082708 22 72 3.2 3.2 0.00 0.13 0.00 97 1007.6
20260509082609 22 72 1.6 3.2 0.00 0.13 0.00 98 1007.6
20260509082508 22 72 0.0 3.2 0.00 0.13 0.00 98 1007.6
20260509082409 22 72 0.0 0.0 0.00 0.13 0.00 98 1007.6
20260509082308 22 72 0.0 1.6 0.00 0.13 0.00 98 1007.6
20260509082208 22 72 0.0 1.6 0.00 0.13 0.00 98 1007.7
20260509082109 22 72 0.0 1.6 0.00 0.13 0.00 98 1007.7
20260509082009 22 72 0.0 1.6 0.00 0.13 0.00 98 1007.7
20260509081908 22 72 0.0 1.6 0.00 0.13 0.00 98 1007.7
20260509081808 22 72 0.0 1.6 0.00 0.13 0.00 98 1007.7
20260509081710 22 72 0.0 1.6 0.00 0.13 0.00 98 1007.7
20260509081609 22 72 0.0 1.6 0.00 0.13 0.00 98 1007.6
20260509081508 22 72 0.0 1.6 0.00 0.13 0.00 98 1007.6
20260509081409 22 72 0.0 3.2 0.00 0.13 0.00 98 1007.6
20260509081308 22 72 0.0 3.2 0.00 0.13 0.00 98 1007.6
20260509081208 22 72 0.0 3.2 0.00 0.13 0.00 98 1007.6
20260509081108 22 72 0.0 3.2 0.00 0.13 0.00 98 1007.6
20260509081011 22 72 0.0 3.2 0.00 0.13 0.00 98 1007.6
20260509080908 22 72 0.0 4.8 0.00 0.13 0.00 98 1007.7
20260509080811 22 72 0.0 4.8 0.00 0.13 0.00 98 1007.7
20260509080709 23 72 1.6 4.8 0.00 0.13 0.00 98 1007.7
20260509080609 23 72 1.6 4.8 0.00 0.13 0.00 98 1007.7
20260509080509 22 72 1.6 4.8 0.00 0.13 0.00 98 1007.7
20260509080409 22 72 1.6 4.8 0.00 0.13 0.00 98 1007.8
20260509080309 22 72 3.2 4.8 0.00 0.13 0.00 98 1007.7
20260509080208 22 72 3.2 4.8 0.00 0.13 0.00 98 1007.7
20260509080111 22 72 3.2 4.8 0.00 0.13 0.00 98 1007.6
20260509080011 22 72 3.2 4.8 0.00 0.13 0.00 98 1007.7
20260509075908 22 72 3.2 4.8 0.00 0.13 0.00 98 1007.7
20260509075807 22 72 1.6 4.8 0.00 0.13 0.00 98 1007.7
20260509075708 22 72 3.2 4.8 0.00 0.13 0.00 98 1007.7
20260509075610 22 72 3.2 4.8 0.00 0.13 0.00 98 1007.8
20260509075509 22 72 1.6 4.8 0.00 0.13 0.00 98 1007.7
20260509075409 22 72 0.0 4.8 0.00 0.13 0.00 98 1007.7
20260509075310 22 72 0.0 4.8 0.00 0.13 0.00 98 1007.7
20260509075209 22 72 0.0 4.8 0.00 0.13 0.00 98 1007.7
20260509075109 22 72 0.0 4.8 0.00 0.13 0.00 98 1007.7
20260509075008 22 72 0.0 4.8 0.00 0.13 0.00 98 1007.7
20260509074909 22 72 1.6 4.8 0.00 0.13 0.00 98 1007.7
20260509074808 22 72 3.2 4.8 0.00 0.13 0.00 98 1007.7
20260509074708 22 72 3.2 4.8 0.00 0.13 0.00 98 1007.7
20260509074609 22 72 3.2 4.8 0.00 0.13 0.00 98 1007.7
20260509074508 22 72 3.2 4.8 0.00 0.13 0.00 98 1007.7
20260509074408 22 72 3.2 4.8 0.00 0.13 0.00 98 1007.7
20260509074307 22 72 1.6 3.2 0.00 0.13 0.00 98 1007.8
20260509074205 22 72 0.0 3.2 0.00 0.13 0.00 97 1007.8
20260509074104 22 72 0.0 4.8 0.00 0.13 0.00 98 1007.8
20260509074003 22 72 0.0 4.8 0.00 0.13 0.00 98 1007.8
20260509073904 23 72 0.0 4.8 0.00 0.13 0.00 98 1007.9
20260509073802 23 72 1.6 4.8 0.00 0.13 0.00 98 1007.8
20260509073702 22 72 1.6 4.8 0.00 0.13 0.00 97 1007.9
20260509073602 23 72 3.2 4.8 0.00 0.13 0.00 98 1007.9
20260509073503 22 72 3.2 4.8 0.00 0.13 0.00 98 1007.9
20260509073402 22 72 3.2 4.8 0.00 0.13 0.00 98 1008.0
20260509073302 22 72 3.2 4.8 0.00 0.13 0.00 98 1007.9
20260509073203 22 72 3.2 4.8 0.00 0.13 0.00 98 1008.0
20260509073102 22 72 3.2 3.2 0.00 0.13 0.00 97 1008.0
20260509073002 22 72 1.6 3.2 0.00 0.13 0.00 98 1008.0
20260509072903 22 72 0.0 3.2 0.00 0.13 0.00 98 1008.0
20260509072803 22 72 0.0 3.2 0.00 0.13 0.00 98 1008.1
20260509072703 22 72 0.0 3.2 0.00 0.13 0.00 98 1008.1
20260509072602 22 72 0.0 3.2 0.00 0.13 0.00 98 1008.2
20260509072505 22 72 0.0 3.2 0.00 0.13 0.00 98 1008.2
20260509072402 22 72 0.0 3.2 0.00 0.13 0.00 98 1008.2
20260509072306 22 72 0.0 3.2 0.00 0.13 0.00 98 1008.2
20260509072204 22 72 0.0 3.2 0.00 0.13 0.00 98 1008.2
20260509072103 22 72 1.6 3.2 0.00 0.13 0.00 98 1008.2
20260509072004 22 72 1.6 3.2 0.00 0.13 0.00 98 1008.2
20260509071902 22 72 0.0 3.2 0.00 0.13 0.00 98 1008.2
20260509071802 22 72 0.0 0.0 0.00 0.13 0.00 98 1008.3
20260509071702 22 72 0.0 0.0 0.00 0.13 0.00 98 1008.2
20260509071601 22 72 0.0 0.0 0.00 0.13 0.00 98 1008.2
20260509071503 22 72 0.0 0.0 0.00 0.13 0.00 98 1008.2
20260509071402 22 72 0.0 0.0 0.00 0.13 0.00 98 1008.1
20260509071300 22 72 0.0 0.0 0.00 0.13 0.00 98 1008.2
20260509071200 22 72 0.0 0.0 0.00 0.13 0.00 98 1008.1
20260509071058 22 72 0.0 0.0 0.00 0.13 0.00 98 1008.2
20260509070955 22 72 0.0 0.0 0.00 0.13 0.00 98 1008.1
20260509070855 22 72 0.0 0.0 0.00 0.13 0.00 98 1008.0
20260509070752 22 72 0.0 0.0 0.00 0.13 0.00 98 1008.0
20260509070652 22 72 0.0 0.0 0.00 0.13 0.00 98 1008.0
20260509070553 22 72 0.0 0.0 0.00 0.13 0.00 98 1008.0
20260509070547 22 72 0.0 0.0 0.00 0.13 0.00 98 1008.0
20260509070526 22 72 0.0 0.0 0.00 0.13 0.00 98 1008.0
20260509070510 22 72 0.0 0.0 0.00 0.13 0.00 98 1008.0
20260509070140 22 72 0.0 0.0 0.00 0.13 0.00 98 1008.1
20260509070042 22 72 0.0 0.0 0.00 0.13 0.00 97 1007.9
20260509065940 22 72 0.0 0.0 0.00 0.13 0.00 97 1007.9
20260509065839 22 72 0.0 0.0 0.00 0.13 0.00 97 1007.9
20260509065738 22 72 0.0 0.0 0.00 0.13 0.00 98 1007.9
20260509065636 22 72 0.0 0.0 0.00 0.13 0.00 98 1007.9
20260509065532 22 72 0.0 0.0 0.00 0.13 0.00 98 1007.9
20260509065431 22 72 0.0 1.6 0.00 0.13 0.00 98 1007.9
20260509065332 22 72 0.0 1.6 0.00 0.13 0.00 98 1007.9
20260509065231 22 72 0.0 1.6 0.00 0.13 0.00 98 1007.9
20260509065131 22 72 0.0 1.6 0.00 0.13 0.00 98 1007.9
20260509065031 22 72 0.0 1.6 0.00 0.13 0.00 97 1007.9
20260509064931 22 72 0.0 1.6 0.00 0.13 0.00 98 1007.9
20260509064832 22 72 0.0 1.6 0.00 0.13 0.00 98 1007.9
20260509064730 22 72 0.0 1.6 0.00 0.13 0.00 97 1007.9
20260509064631 22 72 0.0 1.6 0.00 0.13 0.00 97 1007.9
20260509064532 22 72 0.0 1.6 0.00 0.13 0.00 97 1008.0
20260509064431 22 72 0.0 1.6 0.00 0.13 0.00 97 1008.0
20260509064332 22 72 0.0 1.6 0.00 0.13 0.00 97 1008.0
20260509064232 22 72 0.0 1.6 0.00 0.13 0.00 97 1008.0
20260509064131 22 72 0.0 1.6 0.00 0.13 0.00 98 1008.0
20260509064031 22 72 0.0 1.6 0.00 0.13 0.00 97 1008.0
20260509063932 22 72 0.0 1.6 0.00 0.13 0.00 97 1008.0
20260509063832 22 72 0.0 0.0 0.00 0.13 0.00 97 1008.0
20260509063731 22 72 0.0 0.0 0.00 0.13 0.00 97 1008.0
20260509063632 22 72 0.0 0.0 0.00 0.13 0.00 97 1008.0
20260509063530 22 72 0.0 0.0 0.00 0.13 0.00 97 1008.0
20260509063431 22 72 0.0 0.0 0.00 0.13 0.00 97 1008.2
20260509063333 22 72 0.0 0.0 0.00 0.13 0.00 97 1008.1
20260509063231 22 72 0.0 0.0 0.00 0.13 0.00 97 1008.0
20260509063131 22 72 0.0 0.0 0.00 0.13 0.00 97 1008.1
20260509063031 22 72 0.0 0.0 0.00 0.13 0.00 97 1008.1
20260509062932 22 72 0.0 0.0 0.00 0.13 0.00 97 1008.2
20260509062830 22 72 0.0 0.0 0.00 0.13 0.00 97 1008.1
20260509062729 22 72 0.0 0.0 0.00 0.13 0.00 97 1008.2
20260509062627 22 72 0.0 0.0 0.00 0.13 0.00 97 1008.3
20260509062515 22 72 0.0 0.0 0.00 0.13 0.00 97 1008.2
20260509062415 22 72 0.0 0.0 0.00 0.13 0.00 97 1008.2
20260509062313 22 72 0.0 0.0 0.00 0.13 0.00 97 1008.2
20260509062211 22 72 0.0 0.0 0.00 0.13 0.00 97 1008.3
20260509062110 22 72 0.0 0.0 0.00 0.13 0.00 97 1008.3
20260509062009 22 72 0.0 1.6 0.00 0.13 0.00 97 1008.3
20260509061908 22 72 0.0 3.2 0.00 0.13 0.00 97 1008.3
20260509061805 22 72 0.0 3.2 0.00 0.13 0.00 97 1008.2
20260509061705 22 72 0.0 3.2 0.00 0.13 0.00 97 1008.2
20260509061605 22 72 0.0 3.2 0.00 0.13 0.00 97 1008.2
20260509061505 22 72 0.0 3.2 0.00 0.13 0.00 97 1008.2
20260509061405 22 72 0.0 3.2 0.00 0.13 0.00 97 1008.1
20260509061306 22 72 0.0 3.2 0.00 0.13 0.00 97 1008.1
20260509061206 22 72 0.0 3.2 0.00 0.13 0.00 97 1008.1
20260509061106 22 72 0.0 3.2 0.00 0.13 0.00 97 1008.2
20260509061006 22 72 1.6 3.2 0.00 0.13 0.00 97 1008.2
20260509060905 22 72 1.6 3.2 0.00 0.13 0.00 97 1008.2
20260509060806 22 72 1.6 3.2 0.00 0.13 0.00 97 1008.3
20260509060705 22 72 1.6 3.2 0.00 0.13 0.00 97 1008.3
20260509060605 22 72 1.6 3.2 0.00 0.13 0.00 97 1008.4
20260509060506 22 72 3.2 3.2 0.00 0.13 0.00 97 1008.4
20260509060405 22 72 3.2 3.2 0.00 0.13 0.00 97 1008.4
20260509060305 22 72 1.6 3.2 0.00 0.13 0.00 97 1008.3
20260509060208 22 72 0.0 3.2 0.00 0.13 0.00 97 1008.5
20260509060106 22 72 0.0 3.2 0.00 0.13 0.00 97 1008.4
20260509060006 22 72 0.0 3.2 0.00 0.13 0.00 97 1008.4
20260509055905 22 72 0.0 3.2 0.00 0.13 0.00 97 1008.5
20260509055806 22 72 0.0 3.2 0.00 0.13 0.00 97 1008.5
20260509055704 22 72 0.0 4.8 0.00 0.13 0.00 97 1008.4
20260509055605 22 72 0.0 4.8 0.00 0.13 0.00 97 1008.4
20260509055506 22 72 1.6 4.8 0.00 0.13 0.00 97 1008.4
20260509055405 22 72 1.6 4.8 0.00 0.13 0.00 97 1008.4
20260509055307 22 72 1.6 4.8 0.00 0.13 0.00 97 1008.4
20260509055205 22 72 0.0 4.8 0.00 0.13 0.00 97 1008.4
20260509055107 22 72 1.6 4.8 0.00 0.13 0.00 97 1008.4
20260509055005 22 72 1.6 4.8 0.00 0.13 0.00 97 1008.3
20260509054905 22 72 3.2 4.8 0.00 0.13 0.00 97 1008.4
20260509054805 22 72 3.2 4.8 0.00 0.13 0.00 97 1008.4
20260509054705 22 72 3.2 4.8 0.00 0.13 0.00 97 1008.4
20260509054605 22 69 4.8 4.8 0.00 0.13 0.00 97 1008.3
20260509054505 22 103 3.2 6.4 0.00 0.13 0.00 97 1008.4
20260509054405 22 103 3.2 6.4 0.00 0.13 0.00 97 1008.3
20260509054304 22 103 3.2 6.4 0.00 0.13 0.00 97 1008.3
20260509054205 22 103 3.2 6.4 0.00 0.13 0.00 97 1008.3
20260509054106 22 104 3.2 6.4 0.00 0.13 0.00 97 1008.3
20260509054004 22 104 3.2 6.4 0.00 0.13 0.00 97 1008.3
20260509053904 22 104 3.2 6.4 0.00 0.13 0.00 97 1008.4
20260509053805 22 106 3.2 6.4 0.00 0.13 0.00 97 1008.4
20260509053705 22 104 4.8 6.4 0.00 0.13 0.00 97 1008.4
20260509053604 22 103 4.8 8.0 0.00 0.13 0.00 97 1008.5
20260509053505 22 106 3.2 8.0 0.00 0.13 0.00 97 1008.4
20260509053406 22 109 3.2 8.0 0.00 0.13 0.00 97 1008.4
20260509053305 22 109 1.6 8.0 0.00 0.13 0.00 97 1008.4
20260509053205 22 109 1.6 8.0 0.00 0.13 0.00 97 1008.4
20260509053104 22 109 3.2 8.0 0.00 0.13 0.00 97 1008.4
20260509053006 22 109 3.2 8.0 0.00 0.13 0.00 97 1008.4
20260509052905 22 110 4.8 8.0 0.00 0.13 0.00 97 1008.4
20260509052805 22 110 4.8 8.0 0.00 0.13 0.00 97 1008.5
20260509052705 22 109 6.4 8.0 0.00 0.13 0.00 97 1008.5
20260509052604 22 109 3.2 8.0 0.00 0.13 0.00 97 1008.5
20260509052505 22 116 1.6 8.0 0.00 0.13 0.00 97 1008.5
20260509052405 22 145 3.2 9.7 0.00 0.13 0.00 97 1008.5
20260509052307 22 145 4.8 9.7 0.00 0.13 0.00 97 1008.5
20260509052204 22 89 3.2 9.7 0.00 0.13 0.00 97 1008.5
20260509052104 22 111 3.2 9.7 0.00 0.13 0.00 97 1008.5
20260509052004 22 111 3.2 9.7 0.00 0.13 0.00 97 1008.5
20260509051905 22 111 3.2 9.7 0.00 0.13 0.00 97 1008.5
20260509051805 22 113 3.2 9.7 0.00 0.13 0.00 97 1008.5
20260509051705 22 113 4.8 9.7 0.00 0.13 0.00 97 1008.5
20260509051605 22 109 4.8 9.7 0.00 0.13 0.00 97 1008.5
20260509051504 22 113 3.2 9.7 0.00 0.13 0.00 97 1008.5
20260509051405 22 123 3.2 8.0 0.00 0.13 0.00 97 1008.5
20260509051304 22 102 3.2 8.0 0.00 0.13 0.00 97 1008.5
20260509051204 22 102 4.8 8.0 0.00 0.13 0.00 97 1008.4
20260509051106 22 100 3.2 8.0 0.00 0.13 0.00 97 1008.5
20260509051005 22 100 4.8 8.0 0.00 0.13 0.00 97 1008.5
20260509050904 22 107 4.8 8.0 0.00 0.13 0.00 97 1008.5
20260509050804 22 104 4.8 8.0 0.00 0.13 0.00 97 1008.4
20260509050704 22 97 4.8 8.0 0.00 0.13 0.00 97 1008.5
20260509050604 22 97 4.8 8.0 0.00 0.13 0.00 97 1008.5
20260509050504 22 80 4.8 8.0 0.00 0.13 0.00 97 1008.6
20260509050404 22 80 4.8 8.0 0.00 0.13 0.00 97 1008.5
20260509050303 22 89 6.4 8.0 0.00 0.13 0.00 97 1008.5
20260509050204 22 89 6.4 8.0 0.00 0.13 0.00 97 1008.5
20260509050105 22 89 6.4 8.0 0.00 0.13 0.00 97 1008.5
20260509050003 22 87 6.4 8.0 0.00 0.13 0.00 97 1008.5
20260509045903 22 106 4.8 8.0 0.00 0.13 0.13 97 1008.5
20260509045803 22 92 4.8 8.0 0.00 0.13 0.13 97 1008.6
20260509045702 22 92 6.4 8.0 0.00 0.13 0.13 97 1008.5
20260509045602 22 99 6.4 8.0 0.00 0.13 0.13 97 1008.6
20260509045503 22 102 4.8 6.4 0.00 0.13 0.13 97 1008.6
20260509045402 22 96 4.8 6.4 0.00 0.13 0.13 97 1008.5
20260509045301 22 92 3.2 6.4 0.00 0.13 0.13 97 1008.6
20260509045202 22 97 3.2 6.4 0.00 0.13 0.13 97 1008.6
20260509045102 22 97 1.6 6.4 0.00 0.13 0.13 97 1008.7
20260509045003 22 103 1.6 6.4 0.00 0.13 0.13 97 1008.6
20260509044839 22 102 3.2 6.4 0.00 0.13 0.13 97 1008.7
20260509044738 22 103 3.2 6.4 0.00 0.13 0.13 97 1008.7
20260509044635 22 102 3.2 6.4 0.00 0.13 0.13 97 1008.7
20260509044533 22 107 3.2 6.4 0.00 0.13 0.13 97 1008.6
20260509044434 22 144 3.2 6.4 0.00 0.13 0.13 97 1008.7
20260509044332 22 145 3.2 6.4 0.00 0.13 0.13 97 1008.7
20260509044231 22 107 1.6 1.6 0.00 0.13 0.13 97 1008.7
20260509044132 22 107 1.6 3.2 0.00 0.13 0.13 97 1008.7
20260509044032 22 107 1.6 3.2 0.00 0.13 0.13 97 1008.8
20260509043932 22 107 1.6 3.2 0.00 0.13 0.13 97 1008.7
20260509043833 22 107 1.6 3.2 0.00 0.13 0.13 97 1008.6
20260509043732 22 107 1.6 3.2 0.00 0.13 0.13 97 1008.8
20260509043632 22 107 1.6 3.2 0.00 0.13 0.13 97 1008.7
20260509043533 22 107 1.6 6.4 0.00 0.13 0.13 97 1008.8
20260509043432 22 107 1.6 8.0 0.00 0.13 0.13 97 1008.8
20260509043332 22 107 1.6 8.0 0.00 0.13 0.13 97 1008.8
20260509043232 22 107 1.6 8.0 0.00 0.13 0.13 97 1008.9
20260509043132 22 107 1.6 8.0 0.00 0.13 0.13 97 1008.8
20260509043033 22 107 1.6 8.0 0.00 0.13 0.13 97 1008.8
20260509042931 22 107 1.6 8.0 0.00 0.13 0.13 97 1008.8
20260509042832 22 103 4.8 8.0 0.00 0.13 0.13 97 1008.8
20260509042732 22 103 4.8 8.0 0.00 0.13 0.13 97 1008.8
20260509042632 22 103 4.8 8.0 0.00 0.13 0.13 97 1008.8
20260509042532 22 118 4.8 8.0 0.00 0.13 0.13 97 1008.8
20260509042432 22 104 3.2 8.0 0.00 0.13 0.13 97 1008.8
20260509042331 22 92 3.2 8.0 0.00 0.13 0.13 97 1008.7
20260509042233 22 90 3.2 8.0 0.00 0.13 0.13 97 1008.7
20260509042132 22 90 3.2 8.0 0.00 0.13 0.13 97 1008.6
20260509042031 22 90 3.2 8.0 0.00 0.13 0.13 97 1008.6
20260509041930 22 90 3.2 9.7 0.00 0.13 0.13 97 1008.6
20260509041830 22 90 3.2 9.7 0.00 0.13 0.13 97 1008.5
20260509041731 22 92 4.8 9.7 0.00 0.13 0.13 97 1008.5
20260509041632 22 92 4.8 9.7 0.00 0.13 0.13 97 1008.5
20260509041532 22 72 4.8 9.7 0.00 0.13 0.13 97 1008.6
20260509041431 22 72 4.8 9.7 0.00 0.13 0.13 97 1008.6
20260509041332 22 71 4.8 9.7 0.00 0.13 0.13 97 1008.5
20260509041232 22 68 3.2 9.7 0.00 0.13 0.13 97 1008.6
20260509041133 22 85 4.8 9.7 0.00 0.13 0.13 97 1008.5
20260509041030 22 86 6.4 9.7 0.00 0.13 0.13 97 1008.4
20260509040931 22 73 6.4 9.7 0.00 0.13 0.13 97 1008.3
20260509040831 22 71 4.8 9.7 0.00 0.13 0.13 97 1008.4
20260509040731 22 71 4.8 9.7 0.00 0.13 0.13 97 1008.4
20260509040632 22 80 6.4 9.7 0.00 0.13 0.13 97 1008.4
20260509040531 22 78 6.4 9.7 0.00 0.13 0.13 97 1008.3
20260509040432 22 82 6.4 9.7 0.00 0.13 0.13 97 1008.3
20260509040331 22 65 6.4 9.7 0.00 0.13 0.13 97 1008.3
20260509040231 22 83 6.4 9.7 0.00 0.13 0.13 97 1008.3
20260509040130 22 80 6.4 9.7 0.00 0.13 0.13 97 1008.2
20260509040032 22 90 6.4 8.0 0.00 0.13 0.13 97 1008.2
20260509035933 22 73 6.4 8.0 0.00 0.13 0.13 97 1008.1
20260509035832 22 75 6.4 8.0 0.00 0.13 0.13 97 1008.3
20260509035731 22 68 6.4 8.0 0.00 0.13 0.13 97 1008.2
20260509035632 22 78 6.4 8.0 0.00 0.13 0.13 97 1008.3
20260509035531 22 82 6.4 8.0 0.00 0.13 0.13 97 1008.3
20260509035431 22 79 6.4 8.0 0.00 0.13 0.13 97 1008.3
20260509035330 22 97 6.4 8.0 0.00 0.13 0.13 97 1008.2
20260509035233 22 102 6.4 8.0 0.00 0.13 0.13 97 1008.3
20260509035132 22 89 6.4 8.0 0.00 0.13 0.13 97 1008.2
20260509035032 22 89 6.4 8.0 0.00 0.13 0.13 97 1008.2
20260509034932 22 0 6.4 8.0 0.00 0.13 0.13 97 1008.2
20260509034831 22 75 6.4 8.0 0.00 0.13 0.13 97 1008.3
20260509034730 22 82 4.8 9.7 0.00 0.13 0.13 97 1008.3
20260509034620 22 80 4.8 9.7 0.00 0.13 0.13 97 1008.3
20260509034517 22 85 4.8 9.7 0.00 0.13 0.13 97 1008.4
20260509034416 22 103 3.2 9.7 0.00 0.13 0.13 97 1008.4
20260509034315 22 109 6.4 9.7 0.00 0.13 0.13 97 1008.4
20260509034214 22 96 6.4 9.7 0.00 0.13 0.13 97 1008.3
20260509034112 22 102 4.8 9.7 0.00 0.13 0.13 97 1008.4
20260509034012 22 96 3.2 9.7 0.00 0.13 0.13 97 1008.3
20260509033909 22 96 6.4 9.7 0.00 0.13 0.13 97 1008.3
20260509033809 22 83 6.4 9.7 0.00 0.13 0.13 97 1008.2
20260509033707 22 82 6.4 9.7 0.00 0.13 0.13 97 1008.2
20260509033604 22 83 6.4 9.7 0.00 0.13 0.13 97 1008.2
20260509033504 22 83 6.4 9.7 0.00 0.13 0.13 97 1008.1
20260509033403 22 100 6.4 9.7 0.00 0.13 0.13 97 1008.2
20260509033302 22 85 6.4 9.7 0.00 0.13 0.13 97 1008.3
20260509033202 22 114 3.2 9.7 0.00 0.13 0.13 97 1008.3
20260509033102 22 85 3.2 6.4 0.00 0.13 0.13 97 1008.4
20260509033002 22 83 4.8 6.4 0.00 0.13 0.13 97 1008.3
20260509032903 22 83 4.8 11.3 0.00 0.13 0.13 97 1008.4
20260509032803 22 82 4.8 11.3 0.00 0.13 0.13 97 1008.4
20260509032702 22 79 4.8 11.3 0.00 0.13 0.13 97 1008.3
20260509032605 22 79 4.8 11.3 0.00 0.13 0.13 97 1008.3
20260509032501 22 82 4.8 11.3 0.00 0.13 0.13 97 1008.3
20260509032401 22 82 4.8 11.3 0.00 0.13 0.13 97 1008.3
20260509032306 22 65 4.8 11.3 0.00 0.13 0.13 97 1008.3
20260509032203 22 93 6.4 11.3 0.00 0.13 0.13 97 1008.2
20260509032103 22 103 8.0 11.3 0.00 0.13 0.13 97 1008.2
20260509032002 22 99 8.0 11.3 0.00 0.13 0.13 97 1008.2
20260509031903 22 73 8.0 9.7 0.00 0.13 0.13 97 1008.2
20260509031802 22 79 6.4 9.7 0.00 0.13 0.13 97 1008.1
20260509031702 22 111 6.4 9.7 0.00 0.13 0.13 97 1008.2
20260509031600 22 82 8.0 9.7 0.00 0.13 0.13 97 1008.2
20260509031500 22 79 6.4 9.7 0.00 0.13 0.13 97 1008.1
20260509031402 22 90 4.8 8.0 0.00 0.13 0.13 97 1008.2
20260509031300 22 85 4.8 8.0 0.00 0.13 0.13 97 1008.1
20260509031200 22 82 4.8 8.0 0.00 0.13 0.13 97 1008.1
20260509031100 22 82 6.4 8.0 0.00 0.13 0.13 97 1008.1
20260509031000 22 89 6.4 8.0 0.00 0.13 0.13 97 1008.1
20260509030859 22 89 4.8 8.0 0.00 0.13 0.13 97 1008.2
20260509030759 22 83 4.8 8.0 0.00 0.13 0.13 97 1008.2
20260509030700 22 83 4.8 8.0 0.00 0.13 0.13 97 1008.3
20260509030600 22 92 6.4 8.0 0.00 0.13 0.13 97 1008.2
20260509030459 22 78 6.4 8.0 0.00 0.13 0.13 97 1008.2
20260509030400 22 73 6.4 8.0 0.00 0.13 0.13 97 1008.2
20260509030300 22 79 6.4 8.0 0.00 0.13 0.13 97 1008.2
20260509030200 22 90 6.4 8.0 0.00 0.13 0.13 97 1008.1
20260509030100 22 89 6.4 8.0 0.00 0.13 0.13 97 1008.0
20260509030000 22 71 6.4 8.0 0.00 0.13 0.13 97 1008.0
20260509025859 22 71 6.4 8.0 0.00 0.13 0.13 97 1008.0
20260509025801 22 69 6.4 8.0 0.00 0.13 0.13 97 1008.0
20260509025701 22 78 6.4 8.0 0.00 0.13 0.13 97 1008.1
20260509025600 22 68 4.8 8.0 0.00 0.13 0.13 97 1008.1
20260509025459 22 58 4.8 8.0 0.00 0.13 0.13 97 1008.1
20260509025359 22 58 6.4 8.0 0.00 0.13 0.13 97 1008.1
20260509025300 22 65 6.4 9.7 0.00 0.13 0.13 97 1008.1
20260509025159 22 61 4.8 9.7 0.00 0.13 0.13 97 1008.1
20260509025059 22 73 4.8 11.3 0.00 0.13 0.13 97 1008.1
20260509025000 22 78 4.8 11.3 0.00 0.13 0.13 97 1008.1
20260509024859 22 59 6.4 11.3 0.00 0.13 0.13 97 1008.0
20260509024759 22 69 4.8 11.3 0.00 0.13 0.13 97 1007.9
20260509024659 22 71 4.8 11.3 0.00 0.13 0.13 97 1007.8
20260509024601 22 83 4.8 11.3 0.00 0.13 0.13 97 1007.8
20260509024458 22 83 6.4 11.3 0.00 0.13 0.13 97 1007.9
20260509024358 22 86 6.4 11.3 0.00 0.13 0.13 97 1007.9
20260509024259 22 85 8.0 11.3 0.00 0.13 0.13 97 1007.9
20260509024159 22 85 8.0 11.3 0.00 0.13 0.13 97 1008.0
20260509024100 22 69 8.0 9.7 0.00 0.13 0.13 97 1007.9
20260509023959 22 75 6.4 9.7 0.00 0.13 0.13 97 1008.0
20260509023900 22 79 6.4 8.0 0.00 0.13 0.13 97 1007.9
20260509023759 22 79 6.4 8.0 0.00 0.13 0.13 97 1008.0
20260509023658 22 110 4.8 8.0 0.00 0.13 0.13 97 1007.9
20260509023559 22 82 4.8 8.0 0.00 0.13 0.13 97 1007.9
20260509023459 22 82 6.4 8.0 0.00 0.13 0.13 97 1007.9
20260509023359 22 93 6.4 8.0 0.00 0.13 0.13 97 1007.9
20260509023259 22 79 3.2 8.0 0.00 0.13 0.13 97 1007.9
20260509023200 22 87 4.8 9.7 0.00 0.13 0.13 97 1007.8
20260509023059 22 87 6.4 9.7 0.00 0.13 0.13 97 1007.8
20260509022959 22 86 6.4 9.7 0.00 0.13 0.13 97 1007.7
20260509022859 22 83 6.4 9.7 0.00 0.13 0.13 97 1007.6
20260509022758 22 56 6.4 9.7 0.00 0.13 0.13 97 1007.7
20260509022659 22 56 6.4 11.3 0.00 0.13 0.13 97 1007.7
20260509022559 22 48 6.4 11.3 0.00 0.13 0.13 97 1007.6
20260509022500 22 58 6.4 11.3 0.00 0.13 0.13 97 1007.7
20260509022358 22 78 6.4 11.3 0.00 0.13 0.13 97 1007.7
20260509022258 22 68 8.0 11.3 0.00 0.13 0.13 97 1007.7
20260509022200 22 73 8.0 11.3 0.00 0.13 0.13 97 1007.6
20260509022059 22 92 6.4 11.3 0.00 0.13 0.13 97 1007.7
20260509021959 22 66 8.0 11.3 0.00 0.13 0.13 97 1007.6
20260509021858 22 78 8.0 11.3 0.00 0.13 0.13 97 1007.6
20260509021800 22 96 8.0 11.3 0.00 0.13 0.13 97 1007.6
20260509021658 22 85 6.4 11.3 0.00 0.13 0.13 97 1007.6
20260509021559 22 86 6.4 11.3 0.00 0.13 0.13 97 1007.6
20260509021500 22 80 4.8 9.7 0.00 0.13 0.13 97 1007.7
20260509021358 22 65 4.8 9.7 0.00 0.13 0.13 97 1007.7
20260509021259 22 73 4.8 9.7 0.00 0.13 0.13 97 1007.6
20260509021200 22 71 4.8 11.3 0.00 0.13 0.13 97 1007.7
20260509021059 22 90 6.4 11.3 0.00 0.13 0.13 97 1007.6
20260509020958 22 65 6.4 11.3 0.00 0.13 0.13 97 1007.7
20260509020858 22 75 6.4 11.3 0.00 0.13 0.13 97 1007.7
20260509020759 22 80 6.4 11.3 0.00 0.13 0.13 97 1007.6
20260509020658 22 35 6.4 11.3 0.00 0.13 0.13 97 1007.6
20260509020559 22 80 6.4 11.3 0.00 0.13 0.13 97 1007.7
20260509020459 22 54 6.4 11.3 0.00 0.13 0.13 97 1007.7
20260509020357 22 63 8.0 11.3 0.00 0.13 0.13 97 1007.7
20260509020258 22 54 6.4 11.3 0.00 0.13 0.13 97 1007.6
20260509020158 22 65 6.4 9.7 0.00 0.13 0.13 97 1007.7
20260509020059 22 42 6.4 9.7 0.00 0.13 0.13 97 1007.7
20260509015957 22 54 8.0 9.7 0.00 0.13 0.13 97 1007.6
20260509015857 22 69 8.0 9.7 0.00 0.13 0.13 97 1007.6
20260509015759 22 59 6.4 9.7 0.00 0.13 0.13 97 1007.5
20260509015659 22 49 6.4 9.7 0.00 0.13 0.13 97 1007.6
20260509015558 22 75 6.4 9.7 0.00 0.13 0.13 97 1007.6
20260509015457 22 56 6.4 9.7 0.00 0.13 0.13 97 1007.6
20260509015400 22 63 4.8 9.7 0.00 0.13 0.13 96 1007.6
20260509015257 22 51 4.8 8.0 0.00 0.13 0.13 97 1007.6
20260509015158 22 49 4.8 8.0 0.00 0.13 0.13 97 1007.6
20260509015058 22 63 3.2 6.4 0.00 0.13 0.13 97 1007.6
20260509014958 22 63 3.2 6.4 0.00 0.13 0.13 97 1007.6
20260509014857 22 63 3.2 6.4 0.00 0.13 0.13 96 1007.6
20260509014757 22 63 3.2 8.0 0.00 0.13 0.13 97 1007.6
20260509014659 22 63 3.2 8.0 0.00 0.13 0.13 96 1007.6
20260509014558 22 63 4.8 8.0 0.00 0.13 0.13 97 1007.7
20260509014459 22 63 3.2 8.0 0.00 0.13 0.13 96 1007.6
20260509014357 22 68 3.2 8.0 0.00 0.13 0.13 96 1007.7
20260509014257 22 68 3.2 8.0 0.00 0.13 0.13 96 1007.7
20260509014158 22 68 4.8 8.0 0.00 0.13 0.13 96 1007.6
20260509014057 22 68 4.8 8.0 0.00 0.13 0.13 96 1007.6
20260509013958 22 82 6.4 8.0 0.00 0.13 0.13 96 1007.7
20260509013857 22 78 6.4 8.0 0.00 0.13 0.13 96 1007.7
20260509013758 22 68 4.8 8.0 0.00 0.13 0.13 96 1007.7
20260509013658 22 39 4.8 9.7 0.00 0.13 0.13 96 1007.6
20260509013557 22 35 4.8 9.7 0.00 0.13 0.13 96 1007.7
20260509013457 22 79 4.8 9.7 0.00 0.13 0.13 96 1007.7
20260509013357 22 79 6.4 9.7 0.00 0.13 0.13 96 1007.7
20260509013259 22 71 3.2 9.7 0.00 0.13 0.13 96 1007.7
20260509013157 22 66 3.2 14.5 0.00 0.13 0.13 96 1007.7
20260509013057 22 66 4.8 14.5 0.00 0.13 0.13 96 1007.6
20260509012958 22 66 4.8 14.5 0.00 0.13 0.13 96 1007.6
20260509012857 22 51 6.4 14.5 0.00 0.13 0.13 96 1007.6
20260509012758 22 63 6.4 14.5 0.00 0.13 0.13 96 1007.6
20260509012657 22 72 6.4 14.5 0.00 0.13 0.13 96 1007.6
20260509012559 22 102 6.4 14.5 0.00 0.13 0.13 96 1007.5
20260509012456 22 86 8.0 14.5 0.00 0.13 0.13 96 1007.6
20260509012357 22 69 8.0 14.5 0.00 0.13 0.13 96 1007.5
20260509012259 22 75 8.0 14.5 0.00 0.13 0.13 96 1007.5
20260509012157 22 93 6.4 8.0 0.00 0.13 0.13 96 1007.5
20260509012058 22 75 6.4 8.0 0.00 0.13 0.13 96 1007.4
20260509011957 22 75 6.4 8.0 0.00 0.13 0.13 96 1007.5
20260509011858 22 75 6.4 8.0 0.00 0.13 0.13 96 1007.5
20260509011756 22 69 6.4 8.0 0.00 0.13 0.13 96 1007.5
20260509011657 22 102 6.4 8.0 0.00 0.13 0.13 96 1007.5
20260509011559 22 72 6.4 8.0 0.00 0.13 0.13 96 1007.5
20260509011458 22 62 6.4 9.7 0.00 0.13 0.13 96 1007.5
20260509011358 22 78 6.4 14.5 0.00 0.13 0.13 96 1007.4
20260509011258 22 82 4.8 14.5 0.00 0.13 0.13 96 1007.4
20260509011157 22 68 3.2 14.5 0.00 0.13 0.13 96 1007.4
20260509011057 22 68 3.2 14.5 0.00 0.13 0.13 96 1007.4
20260509010957 22 66 4.8 14.5 0.00 0.13 0.13 96 1007.3
20260509010857 22 66 4.8 14.5 0.00 0.13 0.13 96 1007.4
20260509010756 22 66 4.8 14.5 0.00 0.13 0.13 96 1007.4
20260509010657 22 65 6.4 14.5 0.00 0.13 0.13 96 1007.4
20260509010558 22 72 9.7 14.5 0.00 0.13 0.13 96 1007.5
20260509010457 22 85 9.7 14.5 0.00 0.13 0.13 96 1007.4
20260509010358 22 55 8.0 11.3 0.00 0.13 0.13 96 1007.4
20260509010256 22 65 8.0 11.3 0.00 0.13 0.13 96 1007.3
20260509010157 22 24 6.4 11.3 0.00 0.13 0.13 96 1007.3
20260509010056 22 56 4.8 11.3 0.00 0.13 0.13 96 1007.3
20260509005956 22 76 4.8 9.7 0.00 0.13 0.13 96 1007.3
20260509005856 22 54 4.8 9.7 0.00 0.13 0.13 96 1007.3
20260509005756 22 48 4.8 9.7 0.00 0.13 0.13 96 1007.3
20260509005657 22 69 6.4 11.3 0.00 0.13 0.13 96 1007.4
20260509005556 22 66 6.4 11.3 0.00 0.13 0.13 96 1007.3
20260509005457 22 80 6.4 11.3 0.00 0.13 0.13 96 1007.4
20260509005357 22 65 6.4 11.3 0.00 0.13 0.13 96 1007.3
20260509005257 22 69 6.4 11.3 0.00 0.13 0.13 96 1007.4
20260509005158 22 73 4.8 11.3 0.00 0.13 0.13 96 1007.3
20260509005056 22 72 4.8 11.3 0.00 0.13 0.13 96 1007.3
20260509004956 22 63 4.8 11.3 0.00 0.13 0.13 96 1007.3
20260509004856 22 76 6.4 11.3 0.00 0.13 0.13 96 1007.2
20260509004756 22 58 6.4 11.3 0.00 0.13 0.13 96 1007.3
20260509004658 22 54 6.4 9.7 0.00 0.13 0.13 96 1007.2
20260509004556 22 44 6.4 9.7 0.00 0.13 0.13 96 1007.2
20260509004458 22 49 8.0 11.3 0.00 0.13 0.13 96 1007.2
20260509004357 22 55 8.0 11.3 0.00 0.13 0.13 96 1007.2
20260509004257 22 55 8.0 11.3 0.00 0.13 0.13 96 1007.1
20260509004157 22 55 8.0 11.3 0.00 0.13 0.13 96 1007.2
20260509004058 22 83 9.7 11.3 0.00 0.13 0.13 96 1007.2
20260509003957 22 44 8.0 11.3 0.00 0.13 0.13 96 1007.1
20260509003857 22 44 8.0 11.3 0.00 0.13 0.13 96 1007.2
20260509003758 22 44 8.0 11.3 0.00 0.13 0.13 96 1007.2
20260509003656 22 44 8.0 11.3 0.00 0.13 0.13 96 1007.2
20260509003557 22 42 8.0 11.3 0.00 0.13 0.13 96 1007.2
20260509003457 22 79 8.0 11.3 0.00 0.13 0.13 96 1007.2
20260509003356 22 51 8.0 11.3 0.00 0.13 0.13 96 1007.3
20260509003259 22 37 6.4 11.3 0.00 0.13 0.13 96 1007.2
20260509003156 22 78 6.4 11.3 0.00 0.13 0.13 96 1007.2
20260509003056 22 72 8.0 11.3 0.00 0.13 0.13 96 1007.3
20260509002956 22 47 6.4 9.7 0.00 0.13 0.13 96 1007.3
20260509002858 22 45 4.8 9.7 0.00 0.13 0.13 96 1007.3
20260509002758 22 45 3.2 6.4 0.00 0.13 0.13 96 1007.4
20260509002657 22 45 4.8 6.4 0.00 0.13 0.13 96 1007.4
20260509002556 22 45 4.8 9.7 0.00 0.13 0.13 96 1007.3
20260509002455 22 42 3.2 9.7 0.00 0.13 0.13 96 1007.4
20260509002357 22 41 3.2 9.7 0.00 0.13 0.13 96 1007.4
20260509002256 22 41 3.2 9.7 0.00 0.13 0.13 96 1007.3
20260509002157 22 25 4.8 9.7 0.00 0.13 0.13 96 1007.3
20260509002055 22 45 4.8 9.7 0.00 0.13 0.13 96 1007.4
20260509001956 22 47 4.8 9.7 0.00 0.13 0.13 96 1007.4
20260509001856 22 55 4.8 9.7 0.00 0.13 0.13 96 1007.4
20260509001756 22 56 6.4 9.7 0.00 0.13 0.13 96 1007.4
20260509001655 22 61 8.0 9.7 0.00 0.13 0.13 96 1007.3
20260509001557 22 66 6.4 9.7 0.00 0.13 0.13 96 1007.4
20260509001457 22 56 6.4 9.7 0.00 0.13 0.13 96 1007.5
20260509001355 22 92 4.8 9.7 0.00 0.13 0.13 96 1007.5
20260509001255 22 65 4.8 9.7 0.00 0.13 0.13 96 1007.5
20260509001156 22 65 6.4 11.3 0.00 0.13 0.13 96 1007.5
20260509001056 22 54 6.4 11.3 0.00 0.13 0.13 96 1007.4
20260509000956 22 58 8.0 11.3 0.00 0.13 0.13 96 1007.6
20260509000856 22 61 8.0 11.3 0.00 0.13 0.13 96 1007.4
20260509000756 22 63 6.4 11.3 0.00 0.13 0.13 96 1007.4
20260509000657 22 58 6.4 11.3 0.00 0.13 0.13 96 1007.4
20260509000555 22 78 6.4 11.3 0.00 0.13 0.13 96 1007.4
20260509000455 22 59 6.4 11.3 0.00 0.13 0.13 96 1007.4
20260509000355 22 49 6.4 11.3 0.00 0.13 0.13 96 1007.4
20260509000256 22 49 8.0 11.3 0.00 0.13 0.13 96 1007.4
20260509000155 22 52 8.0 11.3 0.00 0.13 0.13 96 1007.3
20260509000057 22 83 8.0 9.7 0.00 0.13 0.13 96 1007.4
20260508235958 22 55 6.4 9.7 0.00 0.13 0.13 96 1007.4
20260508235856 22 51 4.8 9.7 0.00 0.13 0.13 96 1007.4
20260508235755 22 49 4.8 9.7 0.00 0.13 0.13 96 1007.4
20260508235655 22 52 6.4 9.7 0.00 0.13 0.13 96 1007.5
20260508235557 22 52 8.0 9.7 0.00 0.13 0.13 96 1007.4
20260508235454 22 66 8.0 9.7 0.00 0.13 0.13 96 1007.4
20260508235356 22 59 6.4 9.7 0.00 0.13 0.13 96 1007.5
20260508235255 22 68 6.4 9.7 0.00 0.13 0.13 96 1007.5
20260508235156 22 56 6.4 9.7 0.00 0.13 0.13 96 1007.5
20260508235057 22 90 4.8 9.7 0.00 0.13 0.13 96 1007.6
20260508234955 22 72 4.8 8.0 0.00 0.13 0.13 96 1007.6
20260508234857 22 55 6.4 8.0 0.00 0.13 0.13 96 1007.6
20260508234756 22 65 6.4 8.0 0.00 0.13 0.13 96 1007.5
20260508234657 22 65 6.4 8.0 0.00 0.13 0.13 96 1007.5
20260508234555 22 65 6.4 8.0 0.00 0.13 0.13 96 1007.5
20260508234455 22 44 6.4 8.0 0.00 0.13 0.13 96 1007.6
20260508234356 22 45 6.4 8.0 0.00 0.13 0.13 96 1007.5
20260508234254 22 51 6.4 6.4 0.00 0.13 0.13 96 1007.5
20260508234156 22 51 6.4 6.4 0.00 0.13 0.13 96 1007.5
20260508234057 22 49 4.8 6.4 0.00 0.13 0.13 96 1007.6
20260508233955 22 49 4.8 6.4 0.00 0.13 0.13 96 1007.6
20260508233856 22 49 4.8 6.4 0.00 0.13 0.13 96 1007.6
20260508233755 22 49 4.8 9.7 0.00 0.13 0.13 96 1007.7
20260508233654 22 49 4.8 9.7 0.00 0.13 0.13 96 1007.7
20260508233555 22 44 4.8 9.7 0.00 0.13 0.13 96 1007.7
20260508233456 22 35 4.8 9.7 0.00 0.13 0.13 96 1007.7
20260508233355 22 35 3.2 9.7 0.00 0.13 0.13 96 1007.7
20260508233255 22 59 6.4 9.7 0.00 0.13 0.13 96 1007.6
20260508233156 22 59 6.4 9.7 0.00 0.13 0.13 96 1007.5
20260508233055 22 59 6.4 9.7 0.03 0.13 0.13 96 1007.6
20260508232955 22 59 6.4 9.7 0.03 0.13 0.13 96 1007.5
20260508232855 22 58 6.4 9.7 0.03 0.13 0.13 96 1007.6
20260508232755 22 48 6.4 9.7 0.03 0.13 0.13 96 1007.6
20260508232654 22 69 6.4 9.7 0.03 0.13 0.13 95 1007.6
20260508232554 22 62 6.4 9.7 0.03 0.13 0.13 95 1007.6
20260508232456 22 58 6.4 9.7 0.03 0.13 0.13 96 1007.6
20260508232355 22 62 4.8 9.7 0.03 0.13 0.13 96 1007.6
20260508232254 22 62 4.8 9.7 0.03 0.13 0.13 96 1007.6
20260508232154 22 62 4.8 9.7 0.03 0.13 0.13 96 1007.7
20260508232056 22 62 4.8 9.7 0.03 0.13 0.13 95 1007.7
20260508231957 22 62 6.4 9.7 0.03 0.13 0.13 95 1007.7
20260508231855 22 49 6.4 9.7 0.03 0.13 0.13 95 1007.7
20260508231755 22 65 6.4 9.7 0.03 0.13 0.13 95 1007.7
20260508231655 22 59 6.4 9.7 0.03 0.13 0.13 95 1007.7
20260508231556 22 68 6.4 9.7 0.03 0.13 0.13 95 1007.7
20260508231454 22 47 6.4 9.7 0.03 0.13 0.13 95 1007.7
20260508231355 22 59 6.4 9.7 0.03 0.13 0.13 96 1007.6
20260508231254 22 65 4.8 6.4 0.03 0.13 0.13 95 1007.7
20260508231154 22 51 4.8 6.4 0.03 0.13 0.13 96 1007.7
20260508231054 22 51 4.8 6.4 0.03 0.13 0.13 96 1007.6
20260508230954 22 51 4.8 6.4 0.03 0.13 0.13 96 1007.5
20260508230855 22 44 4.8 6.4 0.03 0.13 0.13 96 1007.5
20260508230755 22 44 4.8 8.0 0.03 0.13 0.13 96 1007.6
20260508230654 22 42 3.2 8.0 0.03 0.13 0.13 96 1007.6
20260508230555 22 42 3.2 9.7 0.03 0.13 0.13 96 1007.6
20260508230455 22 42 3.2 9.7 0.03 0.13 0.13 96 1007.5
20260508230355 22 42 3.2 9.7 0.03 0.13 0.13 96 1007.5
20260508230255 22 42 3.2 9.7 0.03 0.13 0.13 96 1007.6
20260508230154 22 41 3.2 9.7 0.03 0.13 0.13 96 1007.5
20260508230056 22 58 3.2 9.7 0.03 0.13 0.13 96 1007.5
20260508225955 22 63 4.8 9.7 0.03 0.10 0.13 96 1007.5
20260508225855 22 63 6.4 9.7 0.03 0.10 0.13 96 1007.4
20260508225755 22 65 6.4 11.3 0.03 0.10 0.13 96 1007.4
20260508225655 22 73 6.4 11.3 0.03 0.10 0.13 96 1007.4
20260508225554 22 68 8.0 11.3 0.03 0.10 0.13 96 1007.4
20260508225454 22 68 8.0 11.3 0.03 0.10 0.13 96 1007.4
20260508225355 22 68 8.0 11.3 0.03 0.10 0.13 96 1007.3
20260508225254 22 68 8.0 11.3 0.03 0.10 0.13 96 1007.3
20260508225153 22 97 9.7 11.3 0.03 0.10 0.13 96 1007.3
20260508225053 22 82 9.7 11.3 0.03 0.10 0.13 96 1007.3
20260508224954 22 85 8.0 11.3 0.03 0.10 0.13 96 1007.4
20260508224853 22 99 6.4 11.3 0.03 0.10 0.13 96 1007.3
20260508224753 22 71 4.8 8.0 0.03 0.10 0.13 96 1007.3
20260508224654 22 54 4.8 9.7 0.03 0.10 0.13 96 1007.4
20260508224553 22 59 6.4 9.7 0.03 0.10 0.13 96 1007.4
20260508224454 22 41 6.4 9.7 0.03 0.10 0.13 96 1007.4
20260508224353 22 35 4.8 9.7 0.03 0.10 0.13 96 1007.4
20260508224255 22 35 4.8 9.7 0.03 0.10 0.13 96 1007.5
20260508224154 22 62 4.8 9.7 0.03 0.10 0.13 96 1007.6
20260508224054 22 62 4.8 9.7 0.03 0.10 0.13 96 1007.5
20260508223953 22 56 3.2 9.7 0.03 0.10 0.13 96 1007.5
20260508223853 22 58 6.4 9.7 0.03 0.10 0.13 95 1007.5
20260508223753 22 58 6.4 9.7 0.03 0.10 0.13 96 1007.5
20260508223654 22 49 6.4 9.7 0.03 0.10 0.13 96 1007.4
20260508223554 22 42 6.4 9.7 0.03 0.10 0.13 95 1007.4
20260508223453 22 47 6.4 9.7 0.03 0.10 0.13 95 1007.5
20260508223353 22 51 6.4 9.7 0.03 0.10 0.13 95 1007.5
20260508223255 22 58 3.2 8.0 0.03 0.10 0.13 96 1007.5
20260508223153 22 55 3.2 6.4 0.03 0.10 0.10 96 1007.5
20260508223053 22 55 4.8 6.4 0.00 0.10 0.10 96 1007.5
20260508222954 22 55 4.8 6.4 0.00 0.10 0.10 96 1007.5
20260508222854 22 58 6.4 8.0 0.00 0.10 0.10 96 1007.5
20260508222753 22 63 6.4 8.0 0.00 0.10 0.10 95 1007.5
20260508222653 22 56 6.4 8.0 0.00 0.10 0.10 95 1007.5
20260508222555 22 56 6.4 8.0 0.00 0.10 0.10 95 1007.6
20260508222453 22 61 6.4 8.0 0.00 0.10 0.10 95 1007.5
20260508222353 22 59 4.8 8.0 0.00 0.10 0.10 95 1007.6
20260508222254 22 47 4.8 8.0 0.00 0.10 0.10 95 1007.6
20260508222154 22 47 4.8 8.0 0.00 0.10 0.10 95 1007.6
20260508222054 22 47 4.8 8.0 0.00 0.10 0.10 95 1007.6
20260508221954 22 47 4.8 8.0 0.00 0.10 0.10 95 1007.6
20260508221853 22 34 3.2 6.4 0.00 0.10 0.10 96 1007.7
20260508221755 22 34 3.2 6.4 0.00 0.10 0.10 96 1007.6
20260508221653 22 34 3.2 8.0 0.00 0.10 0.10 96 1007.6
20260508221555 22 34 3.2 8.0 0.00 0.10 0.10 95 1007.7
20260508221454 22 34 3.2 8.0 0.00 0.10 0.10 95 1007.7
20260508221354 22 34 4.8 8.0 0.00 0.10 0.10 95 1007.7
20260508221252 22 34 4.8 8.0 0.00 0.10 0.10 95 1007.6
20260508221154 22 32 4.8 8.0 0.00 0.10 0.10 95 1007.6
20260508221052 22 32 4.8 8.0 0.00 0.10 0.10 95 1007.6
20260508220952 22 42 4.8 8.0 0.00 0.10 0.10 95 1007.6
20260508220853 22 41 4.8 8.0 0.00 0.10 0.10 95 1007.7
20260508220754 22 42 4.8 8.0 0.00 0.10 0.10 95 1007.7
20260508220653 22 42 3.2 9.7 0.00 0.10 0.10 95 1007.7
20260508220552 22 42 3.2 9.7 0.00 0.10 0.10 96 1007.7
20260508220454 22 41 3.2 9.7 0.00 0.10 0.10 96 1007.7
20260508220353 22 41 3.2 9.7 0.00 0.10 0.10 95 1007.7
20260508220252 22 41 4.8 9.7 0.00 0.10 0.10 95 1007.7
20260508220153 22 41 4.8 9.7 0.00 0.10 0.10 95 1007.7
20260508220053 22 42 6.4 9.7 0.00 0.10 0.10 95 1007.7
20260508215952 22 34 6.4 9.7 0.00 0.10 0.10 95 1007.7
20260508215852 22 31 6.4 9.7 0.00 0.10 0.10 95 1007.6
20260508215754 22 49 6.4 9.7 0.00 0.10 0.10 95 1007.6
20260508215652 22 38 4.8 9.7 0.00 0.10 0.10 95 1007.6
20260508215553 22 52 4.8 9.7 0.00 0.10 0.10 95 1007.6
20260508215455 22 55 6.4 9.7 0.00 0.10 0.10 95 1007.6
20260508215353 22 54 4.8 9.7 0.00 0.10 0.10 95 1007.7
20260508215253 22 47 4.8 9.7 0.00 0.10 0.10 95 1007.7
20260508215152 22 47 4.8 9.7 0.00 0.10 0.10 95 1007.6
20260508215053 22 59 6.4 9.7 0.00 0.10 0.10 95 1007.7
20260508214953 22 52 4.8 9.7 0.00 0.10 0.10 95 1007.7
20260508214852 22 51 3.2 8.0 0.00 0.10 0.10 95 1007.7
20260508214754 22 51 3.2 8.0 0.00 0.10 0.10 95 1007.7
20260508214653 22 45 3.2 8.0 0.00 0.10 0.10 95 1007.7
20260508214552 22 45 4.8 8.0 0.00 0.10 0.10 95 1007.8
20260508214453 22 42 4.8 8.0 0.00 0.10 0.10 95 1007.9
20260508214354 22 59 6.4 8.0 0.00 0.10 0.10 95 1007.9
20260508214253 22 56 6.4 8.0 0.00 0.10 0.10 95 1007.9
20260508214152 22 62 4.8 8.0 0.00 0.10 0.10 95 1007.9
20260508214053 22 49 4.8 8.0 0.00 0.10 0.10 95 1007.9
20260508213952 22 48 6.4 8.0 0.00 0.10 0.10 95 1007.9
20260508213853 22 48 6.4 8.0 0.00 0.10 0.10 95 1008.0
20260508213753 22 47 4.8 8.0 0.00 0.10 0.10 95 1008.0
20260508213653 22 47 3.2 8.0 0.00 0.10 0.10 95 1007.9
20260508213552 22 47 4.8 8.0 0.00 0.10 0.10 95 1007.9
20260508213451 22 48 4.8 8.0 0.00 0.10 0.10 94 1008.0
20260508213353 22 48 6.4 8.0 0.00 0.10 0.10 94 1008.0
20260508213253 22 42 6.4 8.0 0.00 0.10 0.10 94 1008.0
20260508213151 22 39 6.4 8.0 0.00 0.10 0.10 94 1007.9
20260508213052 22 38 4.8 8.0 0.00 0.10 0.10 94 1008.0
20260508212952 22 47 4.8 8.0 0.00 0.10 0.10 94 1008.0
20260508212852 22 45 3.2 8.0 0.00 0.10 0.10 94 1008.0
20260508212752 22 44 4.8 8.0 0.00 0.10 0.10 94 1008.0
20260508212652 22 44 4.8 8.0 0.00 0.10 0.10 94 1008.0
20260508212554 22 42 4.8 8.0 0.00 0.10 0.10 94 1008.0
20260508212453 22 32 3.2 9.7 0.00 0.10 0.10 94 1007.9
20260508212352 22 63 3.2 9.7 0.00 0.10 0.10 94 1008.0
20260508212253 22 63 6.4 9.7 0.00 0.10 0.10 94 1008.0
20260508212152 22 62 4.8 9.7 0.00 0.10 0.10 94 1007.9
20260508212052 22 69 4.8 9.7 0.00 0.10 0.10 94 1008.0
20260508211953 22 73 4.8 9.7 0.00 0.10 0.10 94 1007.9
20260508211852 22 59 4.8 9.7 0.00 0.10 0.10 94 1007.9
20260508211753 22 56 6.4 9.7 0.00 0.10 0.10 94 1007.9
20260508211651 22 65 6.4 9.7 0.00 0.10 0.10 94 1007.9
20260508211551 22 73 6.4 9.7 0.00 0.10 0.10 94 1007.8
20260508211452 22 85 6.4 9.7 0.00 0.10 0.10 94 1007.8
20260508211353 22 79 6.4 9.7 0.00 0.10 0.10 94 1007.8
20260508211252 22 93 4.8 8.0 0.00 0.10 0.10 93 1007.8
20260508211152 22 52 4.8 8.0 0.00 0.10 0.10 93 1007.8
20260508211051 22 51 4.8 8.0 0.00 0.10 0.10 93 1007.9
20260508210952 22 54 4.8 8.0 0.00 0.10 0.10 93 1007.9
20260508210851 22 59 3.2 8.0 0.00 0.10 0.10 93 1008.0
20260508210752 22 59 3.2 8.0 0.00 0.10 0.10 93 1008.0
20260508210651 22 59 3.2 8.0 0.03 0.10 0.10 93 1008.0
20260508210553 22 61 4.8 8.0 0.03 0.10 0.10 93 1008.0
20260508210451 22 61 6.4 8.0 0.03 0.10 0.10 93 1008.0
20260508210352 22 54 4.8 6.4 0.03 0.10 0.10 93 1007.9
20260508210252 22 54 4.8 6.4 0.03 0.10 0.10 93 1007.9
20260508210152 22 63 3.2 6.4 0.03 0.10 0.10 93 1007.9
20260508210051 22 56 3.2 6.4 0.05 0.10 0.10 93 1007.9
20260508205951 22 87 3.2 6.4 0.05 0.05 0.10 93 1007.9
20260508205854 22 87 4.8 6.4 0.05 0.05 0.10 93 1007.9
20260508205752 22 87 3.2 6.4 0.05 0.05 0.10 93 1008.0
20260508205651 22 86 0.0 4.8 0.05 0.05 0.10 93 1008.2
20260508205553 22 86 1.6 4.8 0.05 0.05 0.10 93 1008.2
20260508205451 22 86 3.2 4.8 0.05 0.05 0.10 93 1008.2
20260508205351 22 86 1.6 3.2 0.05 0.05 0.10 93 1008.2
20260508205252 22 87 1.6 4.8 0.08 0.05 0.10 93 1008.1
20260508205153 22 87 1.6 4.8 0.08 0.05 0.10 93 1008.0
20260508205050 22 87 0.0 6.4 0.08 0.05 0.10 93 1008.1
20260508204950 22 87 0.0 6.4 0.08 0.05 0.10 93 1008.1
20260508204851 22 87 0.0 6.4 0.08 0.05 0.10 93 1008.2
20260508204752 22 87 0.0 6.4 0.08 0.05 0.10 93 1008.2
20260508204652 22 87 0.0 6.4 0.08 0.05 0.10 93 1008.2
20260508204551 22 87 1.6 6.4 0.08 0.05 0.10 94 1008.2
20260508204452 22 87 1.6 6.4 0.08 0.05 0.10 94 1008.2
20260508204352 22 87 1.6 6.4 0.08 0.05 0.10 94 1008.2
20260508204251 22 87 3.2 6.4 0.10 0.05 0.10 93 1008.0
20260508204152 22 87 4.8 9.7 0.10 0.05 0.10 94 1008.0
20260508204051 22 89 3.2 11.3 0.10 0.05 0.10 94 1008.0
20260508203951 22 102 3.2 11.3 0.10 0.05 0.10 94 1007.9
20260508203851 22 103 3.2 11.3 0.10 0.05 0.10 94 1008.0
20260508203752 22 117 3.2 11.3 0.10 0.05 0.10 94 1008.1
20260508203651 22 73 3.2 11.3 0.10 0.05 0.10 94 1008.1
20260508203551 22 73 3.2 11.3 0.10 0.05 0.10 94 1008.0
20260508203451 22 48 3.2 11.3 0.10 0.05 0.10 94 1007.9
20260508203351 22 44 4.8 11.3 0.10 0.05 0.10 94 1007.8
20260508203250 22 76 6.4 11.3 0.10 0.05 0.10 94 1007.8
20260508203150 22 93 6.4 11.3 0.10 0.05 0.10 94 1007.8
20260508203051 22 94 6.4 11.3 0.10 0.05 0.10 94 1007.7
20260508202950 22 92 6.4 11.3 0.10 0.05 0.10 94 1007.9
20260508202850 22 63 4.8 11.3 0.10 0.05 0.10 95 1007.9
20260508202751 22 55 8.0 11.3 0.10 0.05 0.10 95 1007.9
20260508202651 22 42 8.0 11.3 0.10 0.05 0.10 95 1007.9
20260508202551 22 71 8.0 11.3 0.10 0.05 0.10 95 1007.9
20260508202451 22 71 8.0 11.3 0.10 0.05 0.10 94 1007.9
20260508202350 22 52 6.4 11.3 0.10 0.05 0.10 94 1007.9
20260508202252 22 62 6.4 11.3 0.10 0.05 0.10 94 1007.9
20260508202150 22 72 8.0 8.0 0.10 0.05 0.10 94 1008.0
20260508202052 22 62 6.4 8.0 0.10 0.05 0.10 94 1008.1
20260508201950 22 61 6.4 8.0 0.10 0.05 0.10 94 1008.2
20260508201851 22 55 4.8 8.0 0.10 0.05 0.10 94 1008.3
20260508201752 22 54 4.8 8.0 0.10 0.05 0.10 94 1008.3
20260508201652 22 69 3.2 9.7 0.10 0.05 0.10 95 1008.4
20260508201551 22 80 3.2 9.7 0.10 0.05 0.10 94 1008.5
20260508201451 22 83 3.2 9.7 0.10 0.05 0.10 94 1008.5
20260508201351 22 118 3.2 9.7 0.10 0.05 0.10 94 1008.5
20260508201250 22 120 4.8 11.3 0.10 0.05 0.10 94 1008.5
20260508201151 22 85 3.2 11.3 0.10 0.05 0.10 95 1008.5
20260508201051 22 68 3.2 11.3 0.10 0.05 0.10 95 1008.5
20260508200950 22 87 3.2 11.3 0.10 0.05 0.10 95 1008.4
20260508200849 22 134 6.4 11.3 0.10 0.05 0.10 94 1008.4
20260508200751 22 102 6.4 11.3 0.10 0.05 0.10 94 1008.4
20260508200651 22 97 6.4 11.3 0.08 0.05 0.08 94 1008.4
20260508200550 22 113 8.0 11.3 0.08 0.05 0.08 94 1008.3
20260508200450 22 102 9.7 11.3 0.08 0.05 0.08 94 1008.3
20260508200351 22 111 9.7 11.3 0.08 0.05 0.08 94 1008.3
20260508200251 22 123 8.0 11.3 0.08 0.05 0.08 94 1008.3
20260508200152 22 124 6.4 9.7 0.08 0.05 0.05 94 1008.4
20260508200051 22 90 4.8 6.4 0.05 0.05 0.05 94 1008.4
20260508195950 22 90 3.2 6.4 0.05 0.00 0.05 94 1008.5
20260508195850 22 111 3.2 6.4 0.05 0.00 0.05 93 1008.6
20260508195749 22 152 3.2 6.4 0.05 0.00 0.05 93 1008.6
20260508195651 22 102 3.2 6.4 0.05 0.00 0.05 93 1008.6
20260508195549 22 111 3.2 6.4 0.05 0.00 0.05 93 1008.5
20260508195450 22 120 3.2 6.4 0.05 0.00 0.05 93 1008.6
20260508195350 22 99 3.2 6.4 0.05 0.00 0.03 93 1008.6
20260508195250 22 103 4.8 6.4 0.03 0.00 0.03 92 1008.7
20260508195149 22 164 4.8 6.4 0.03 0.00 0.03 92 1008.8
20260508195049 22 116 3.2 6.4 0.03 0.00 0.03 92 1008.7
20260508194950 22 127 1.6 8.0 0.03 0.00 0.03 92 1008.7
20260508194850 22 89 0.0 8.0 0.03 0.00 0.03 92 1008.9
20260508194750 22 89 0.0 8.0 0.03 0.00 0.03 92 1008.9
20260508194649 22 89 0.0 8.0 0.03 0.00 0.03 92 1008.9
20260508194549 22 89 1.6 8.0 0.03 0.00 0.03 92 1009.0
20260508194450 22 89 3.2 8.0 0.03 0.00 0.03 91 1009.0
20260508194349 22 89 3.2 8.0 0.03 0.00 0.00 91 1009.0
20260508194250 22 87 4.8 8.0 0.00 0.00 0.00 91 1008.9
20260508194149 22 85 6.4 8.0 0.00 0.00 0.00 91 1008.9
20260508194050 22 114 6.4 8.0 0.00 0.00 0.00 91 1008.9
20260508193950 22 94 6.4 8.0 0.00 0.00 0.00 91 1009.0
20260508193849 22 87 6.4 8.0 0.00 0.00 0.00 90 1009.0
20260508193749 22 86 6.4 8.0 0.00 0.00 0.00 90 1009.0
20260508193649 22 104 6.4 8.0 0.00 0.00 0.00 89 1009.0
20260508193551 22 85 6.4 8.0 0.00 0.00 0.00 90 1009.0
20260508193449 22 83 4.8 8.0 0.00 0.00 0.00 90 1009.1
20260508193351 22 90 4.8 8.0 0.00 0.00 0.00 90 1009.0
20260508193250 22 83 4.8 8.0 0.00 0.00 0.00 89 1009.0
20260508193150 22 83 4.8 8.0 0.00 0.00 0.00 89 1009.1
20260508193049 22 63 4.8 8.0 0.00 0.00 0.00 89 1009.1
20260508192949 22 63 6.4 8.0 0.00 0.00 0.00 89 1009.0
20260508192850 22 62 4.8 14.5 0.00 0.00 0.00 89 1009.1
20260508192748 22 79 3.2 14.5 0.00 0.00 0.00 90 1009.1
20260508192649 22 89 3.2 14.5 0.00 0.00 0.00 89 1009.1
20260508192551 22 89 4.8 14.5 0.00 0.00 0.00 89 1009.1
20260508192449 22 89 3.2 14.5 0.00 0.00 0.00 89 1009.1
20260508192350 22 89 3.2 14.5 0.00 0.00 0.00 89 1009.0
20260508192249 22 111 4.8 14.5 0.00 0.00 0.00 89 1009.0
20260508192151 22 111 4.8 14.5 0.00 0.00 0.00 89 1009.0
20260508192050 22 118 8.0 14.5 0.00 0.00 0.00 89 1009.1
20260508191949 22 102 9.7 14.5 0.00 0.00 0.00 88 1009.1
20260508191849 22 99 8.0 14.5 0.00 0.00 0.00 89 1009.0
20260508191748 22 76 8.0 14.5 0.00 0.00 0.00 88 1009.1
20260508191649 22 82 8.0 14.5 0.00 0.00 0.00 88 1008.9
20260508191549 22 85 8.0 14.5 0.00 0.00 0.00 88 1009.0
20260508191450 22 79 8.0 16.1 0.00 0.00 0.00 88 1008.9
20260508191348 22 80 8.0 16.1 0.00 0.00 0.00 88 1008.9
20260508191249 22 83 8.0 19.3 0.00 0.00 0.00 88 1009.0
20260508191148 22 82 8.0 19.3 0.00 0.00 0.00 88 1009.0
20260508191048 22 86 8.0 19.3 0.00 0.00 0.00 88 1008.9
20260508190948 22 96 6.4 19.3 0.00 0.00 0.00 88 1009.0
20260508190848 22 106 6.4 19.3 0.00 0.00 0.00 88 1008.9
20260508190750 22 85 6.4 19.3 0.00 0.00 0.00 88 1009.0
20260508190646 22 86 9.7 19.3 0.00 0.00 0.00 88 1009.0
20260508190547 22 103 11.3 19.3 0.00 0.00 0.00 88 1009.0
20260508190443 22 86 12.9 20.9 0.00 0.00 0.00 88 1009.0
20260508190343 22 109 9.7 20.9 0.00 0.00 0.00 88 1008.9
20260508190241 22 118 6.4 20.9 0.00 0.00 0.00 88 1009.0
20260508190140 22 87 6.4 20.9 0.00 0.00 0.00 89 1009.0
20260508190039 22 104 9.7 20.9 0.00 0.00 0.00 88 1009.1
20260508185938 22 109 11.3 20.9 0.00 0.00 0.00 88 1009.0
20260508185838 22 111 12.9 20.9 0.00 0.00 0.00 88 1009.0
20260508185735 22 82 12.9 20.9 0.00 0.00 0.00 88 1009.0
20260508185634 22 127 12.9 20.9 0.00 0.00 0.00 88 1008.9
20260508185533 22 123 12.9 20.9 0.00 0.00 0.00 88 1008.9
20260508185430 22 125 12.9 19.3 0.00 0.00 0.00 88 1008.8
20260508185330 22 107 11.3 19.3 0.00 0.00 0.00 88 1008.9
20260508185227 22 103 9.7 19.3 0.00 0.00 0.00 89 1008.8
20260508185127 22 111 11.3 19.3 0.00 0.00 0.00 89 1008.9
20260508185026 22 114 14.5 19.3 0.00 0.00 0.00 88 1008.9
20260508184922 22 104 12.9 19.3 0.00 0.00 0.00 89 1008.9
20260508184820 22 111 11.3 19.3 0.00 0.00 0.00 89 1009.0
20260508184719 22 111 11.3 19.3 0.00 0.00 0.00 89 1008.9
20260508184618 22 125 12.9 19.3 0.00 0.00 0.00 89 1008.9
20260508184516 22 124 14.5 19.3 0.00 0.00 0.00 89 1008.9
20260508184415 22 113 12.9 17.7 0.00 0.00 0.00 89 1008.9
20260508184313 22 109 9.7 17.7 0.00 0.00 0.00 89 1008.9
20260508184212 22 94 9.7 17.7 0.00 0.00 0.00 89 1009.0
20260508184111 22 111 11.3 17.7 0.00 0.00 0.00 89 1008.9
20260508184010 22 102 11.3 17.7 0.00 0.00 0.00 89 1009.0
20260508183908 22 111 9.7 16.1 0.00 0.00 0.00 89 1009.0
20260508183805 22 124 11.3 16.1 0.00 0.00 0.00 89 1008.9